Jump to content
Jazz

FSATIS. Бесплатный погодник для полетов онлайн.

Recommended Posts

FSUIPC зарегистрирован. Подскожите как отключить блокировку файрволлом?

 

Скажите, что значит файрволл? не знаю что это значит...может объяснение и есть тут где, но когда не понимаешь о чем речь, то и не найти

Share this post


Link to post
Share on other sites

в двух словах объяснить я думаю Вас не затруднит...весь топик перерыл...ничего не могу найти

Share this post


Link to post
Share on other sites

в двух словах объяснить я думаю Вас не затруднит...весь топик перерыл...ничего не могу найти

Набрать в гугле ваш вопрос - ровно пара секунд. :nea:

Edited by invictus

Share this post


Link to post
Share on other sites

15:27:23 init begin FSATIS version 11.06.19

15:27:23 options online wx wind steps http://data.satita.net/metar.html?id=

15:27:28 load aloft TH/T<TD <F/T</T </

15:28:16 wx refresh begin $$$

15:28:16 closest station found DGTK (FS=DGTK)

15:28:20 NOT FOUND

15:28:20 No wx data for DGTK

15:28:20 wx refresh end $$$

 

 

Помогите...что только не делал...не работает и все тут!!!!!

Share this post


Link to post
Share on other sites

Если летаем в Ватсиме через FSinn, то нужно ли запускать Fsаtis?

Ох и потрясло же сегодня после набора эшелона в МВЗ.

Share this post


Link to post
Share on other sites

Ксли у вас обновление погоды включено в фсине, то надо отключить погоду в фсатисе. тогда можно использовать фсатис для прослушивания голосового атиса и эффектов.

Share this post


Link to post
Share on other sites

И сейчас трясет в наборе. Что за...? ((

Андрей, подскажите, как убрать обновление погоды в ватсиме? Ну невозможно летать по их погоде!

Ставлю галочки в настройках-погода (Сопилот), в обоих пунктах. Запускаю фсатис и начинается борьба двух "стихий": фсатиса и фсинна.

Edited by von_Stierlitz

Share this post


Link to post
Share on other sites

Если хотите погоду фсина - в фсатисе в меню отключите Wx processing и Wind Aloft processing.

Если нужна погода фсатиса - отключите погоду в фсине.

Edited by Jazz

Share this post


Link to post
Share on other sites

15:27:23 init begin FSATIS version 11.06.19

15:27:23 options online wx wind steps http://data.satita.net/metar.html?id=

15:27:28 load aloft TH/T<TD <F/T</T </

15:28:16 wx refresh begin $$$

15:28:16 closest station found DGTK (FS=DGTK)

15:28:20 NOT FOUND

15:28:20 No wx data for DGTK

15:28:20 wx refresh end $$$

 

 

Помогите...что только не делал...не работает и все тут!!!!!

 

Помогите пожалуйста, что только не далал, учитывая советы выше, ничего не помогает...

Share this post


Link to post
Share on other sites

FSUIPC какой версии? зарегистрирован?

Share this post


Link to post
Share on other sites

Если нужна погода фсатиса - отключите погоду в фсине.

Отключал, ставил 2 галочки. Такое началось, такие глюки с погодой и турбулентность- мама не горюй! Пришлось выходить из фсина и лететь оффлайн с фсатисом.

Share this post


Link to post
Share on other sites

FSUIPC какой версии? зарегистрирован?

 

версия 3.93, зарегистрирован

Share this post


Link to post
Share on other sites

Скажите пожалуйста,а фсатис грузит реальное направление ветра на эшелоне?

Share this post


Link to post
Share on other sites

Скажите пожалуйста,а фсатис грузит реальное направление ветра на эшелоне?

этот вопрос возникает через страницу.

НЕТ, последняя версия НЕ грузит

Share this post


Link to post
Share on other sites

а без настройки ветра во FSUIPC можно вообще летать? проблема такая возникла. как только набираю эшелон на 747 ПМДГ, так самолет начинает потихоньку сбрасывать скорость, вплоть до сваливания. руды уже на максимум. как будто кто то за задницу его держит.. закрываю фсатис, запускаю AS и все нормально.

Share this post


Link to post
Share on other sites

а без настройки ветра во FSUIPC можно вообще летать? проблема такая возникла. как только набираю эшелон на 747 ПМДГ, так самолет начинает потихоньку сбрасывать скорость, вплоть до сваливания. руды уже на максимум. как будто кто то за задницу его держит.. закрываю фсатис, запускаю AS и все нормально.

Проверьте, что творится с забортной температурой. Больше на то похоже.

Share this post


Link to post
Share on other sites

вы думаете fsatis и AS генерируют разную температуру?

Share this post


Link to post
Share on other sites

вы думаете fsatis и AS генерируют разную температуру?

 

Да. У меня с фсатисом в предыдущих версиях было, что на 340-360 эшелоне подбрасывало температуру до -10, а то и 0.

Share this post


Link to post
Share on other sites

Да. У меня с фсатисом в предыдущих версиях было, что на 340-360 эшелоне подбрасывало температуру до -10, а то и 0.

и как с этим бороться?

Share this post


Link to post
Share on other sites

Отключение обновления для ближайших станций помогает.

Не получается найти ни причину такого поведения, ни зависимостей. И так как логов от пользователей (как всегда) нету, поэтому анализ провести затруднительно.

  • Upvote 1

Share this post


Link to post
Share on other sites

Пример пропадания визуального контакта с огнями подхода (иммитация попадания в снежный заряд) на 0:56.

Edited by Jazz
  • Upvote 3

Share this post


Link to post
Share on other sites

 

15:32:52 init begin FSATIS version 10.6.18

15:32:52 options online wx wind noaa

15:32:53 FSUIPC 1159725056 connected

15:32:56 wx init begin ===

15:32:57 wx cleared

15:32:59 closest station found UUDD (FS=UUDD)

15:32:59 surround update begin **

15:33:00 <!DOCTYPE HTML PUBLIC "-//W3C//DTD HTML 4.0//EN" "HTTP://WWW.W3.ORG/TR/REC-HTML40/STRICT.DTD"><HTML><HEAD><TITLE>ADDS - METARS FORM RESULTS</TITLE><LINK REL="STYLESHEET" TYPE="TEXT/CSS" HREF="/ADDS/LAYOUT/OPS/MYSTYLE.CSS"></HEAD><BODY BGCOLOR="#FFFFFF"> <TABLE SUMMARY="THIS TABLE IS USED FOR FORMATTING PURPOSES ONLY" BORDER=0 CELLPADDING=3 CELLSPACING=0> <TR VALIGN="TOP"> <TD ALIGN="LEFT" COLSPAN="2"> <H2>AVIATION DIGITAL DATA SERVICE (ADDS)</H2> OUTPUT PRODUCED BY METARS FORM (1532 UTC&NBSP;19 NOVEMBER 2011)<BR> FOUND AT <A HREF="/ADDS/METARS/INDEX.PHP"> HTTP://AVIATIONWEATHER.GOV/ADDS/METARS/INDEX.PHP</A><BR> <BR> </TD> </TR> <TR VALIGN="TOP"> <TD ALIGN="LEFT" COLSPAN="2"><FONT FACE="MONOSPACE,COURIER">UUEE 191500Z 25007MPS 2300 -SHSN BKN007CB 01/01 Q0997 TEMPO 0900 +SHSN RMK 75550527 25550527</FONT><BR><FONT FACE="MONOSPACE,COURIER">UUWW 191500Z 23006MPS 3800 -SHRASN BKN007 OVC016CB 00/M00 Q0999 19511045 NOSIG</FONT><BR> </TD

15:33:00 wx generated for UUEE

15:33:01 KSC set to 27 based on wx

15:33:01 fs9 wx updated for UUEE

15:33:01 wx generated for UUWW

15:33:03 KSC set to 45 based on wx

15:33:03 fs9 wx updated for UUWW

15:33:03 surround update end **

15:33:03 UUDD 191500Z 24007MPS 220V280 8000 -SN BKN007 OVC100 01/00 Q0999 WS ALL RWY 32590394 82590294 NOSIG

15:33:04 simulated wind ok

15:33:04 wx generated for UUDD

15:33:05 KSC set to 94 based on wx

15:33:05 fs9 wx updated for UUDD

15:33:05 wx init end ===

15:38:32 wx upd begin $$$

15:38:32 surround update begin **

15:38:32 <!DOCTYPE HTML PUBLIC "-//W3C//DTD HTML 4.0//EN" "HTTP://WWW.W3.ORG/TR/REC-HTML40/STRICT.DTD"><HTML><HEAD><TITLE>ADDS - METARS FORM RESULTS</TITLE><LINK REL="STYLESHEET" TYPE="TEXT/CSS" HREF="/ADDS/LAYOUT/OPS/MYSTYLE.CSS"></HEAD><BODY BGCOLOR="#FFFFFF"> <TABLE SUMMARY="THIS TABLE IS USED FOR FORMATTING PURPOSES ONLY" BORDER=0 CELLPADDING=3 CELLSPACING=0> <TR VALIGN="TOP"> <TD ALIGN="LEFT" COLSPAN="2"> <H2>AVIATION DIGITAL DATA SERVICE (ADDS)</H2> OUTPUT PRODUCED BY METARS FORM (1538 UTC&NBSP;19 NOVEMBER 2011)<BR> FOUND AT <A HREF="/ADDS/METARS/INDEX.PHP"> HTTP://AVIATIONWEATHER.GOV/ADDS/METARS/INDEX.PHP</A><BR> <BR> </TD> </TR> <TR VALIGN="TOP"> <TD ALIGN="LEFT" COLSPAN="2"><FONT FACE="MONOSPACE,COURIER">UUEE 191500Z 25007MPS 2300 -SHSN BKN007CB 01/01 Q0997 TEMPO 0900 +SHSN RMK 75550527 25550527</FONT><BR><FONT FACE="MONOSPACE,COURIER">UUWW 191500Z 23006MPS 3800 -SHRASN BKN007 OVC016CB 00/M00 Q0999 19511045 NOSIG</FONT><BR> </TD

15:38:32 wx generated for UUEE

15:38:34 KSC set to 27 based on wx

15:38:34 fs9 wx updated for UUEE

15:38:34 wx generated for UUWW

15:38:35 KSC set to 45 based on wx

15:38:35 fs9 wx updated for UUWW

15:38:35 surround update end **

15:38:35 UUDD 191500Z 24007MPS 220V280 8000 -SN BKN007 OVC100 01/00 Q0999 WS ALL RWY 32590394 82590294 NOSIG

15:38:35 wx upd end $$$

15:43:47 wx upd begin $$$

15:43:47 surround update begin **

15:43:47 <!DOCTYPE HTML PUBLIC "-//W3C//DTD HTML 4.0//EN" "HTTP://WWW.W3.ORG/TR/REC-HTML40/STRICT.DTD"><HTML><HEAD><TITLE>ADDS - METARS FORM RESULTS</TITLE><LINK REL="STYLESHEET" TYPE="TEXT/CSS" HREF="/ADDS/LAYOUT/OPS/MYSTYLE.CSS"></HEAD><BODY BGCOLOR="#FFFFFF"> <TABLE SUMMARY="THIS TABLE IS USED FOR FORMATTING PURPOSES ONLY" BORDER=0 CELLPADDING=3 CELLSPACING=0> <TR VALIGN="TOP"> <TD ALIGN="LEFT" COLSPAN="2"> <H2>AVIATION DIGITAL DATA SERVICE (ADDS)</H2> OUTPUT PRODUCED BY METARS FORM (1543 UTC&NBSP;19 NOVEMBER 2011)<BR> FOUND AT <A HREF="/ADDS/METARS/INDEX.PHP"> HTTP://AVIATIONWEATHER.GOV/ADDS/METARS/INDEX.PHP</A><BR> <BR> </TD> </TR> <TR VALIGN="TOP"> <TD ALIGN="LEFT" COLSPAN="2"><FONT FACE="MONOSPACE,COURIER">UUEE 191530Z 25007MPS 3000 -SHRASN BKN007CB 01/01 Q0997 TEMPO 0900 +SHSN RMK 25550527 75550527</FONT><BR><FONT FACE="MONOSPACE,COURIER">UUWW 191530Z 24006MPS 3800 -SHRASN BKN006 OVC016CB 01/00 Q0999 19511045 NOSIG RMK QBB180</FONT><

15:43:47 wx generated for UUEE

15:43:49 KSC set to 27 based on wx

15:43:49 fs9 wx updated for UUEE

15:43:49 wx generated for UUWW

15:43:50 KSC set to 45 based on wx

15:43:50 fs9 wx updated for UUWW

15:43:50 surround update end **

15:43:50 UUDD 191530Z 25008MPS 8000 -SN BKN007 OVC100 01/01 Q0999 WS RWY32R 32590394 82590294 NOSIG

15:43:50 wx generated for UUDD

15:43:51 KSC set to 94 based on wx

15:43:51 fs9 wx updated for UUDD

15:43:51 wx upd end $$$

15:49:03 wx upd begin $$$

15:49:03 surround update begin **

15:49:04 <!DOCTYPE HTML PUBLIC "-//W3C//DTD HTML 4.0//EN" "HTTP://WWW.W3.ORG/TR/REC-HTML40/STRICT.DTD"><HTML><HEAD><TITLE>ADDS - METARS FORM RESULTS</TITLE><LINK REL="STYLESHEET" TYPE="TEXT/CSS" HREF="/ADDS/LAYOUT/OPS/MYSTYLE.CSS"></HEAD><BODY BGCOLOR="#FFFFFF"> <TABLE SUMMARY="THIS TABLE IS USED FOR FORMATTING PURPOSES ONLY" BORDER=0 CELLPADDING=3 CELLSPACING=0> <TR VALIGN="TOP"> <TD ALIGN="LEFT" COLSPAN="2"> <H2>AVIATION DIGITAL DATA SERVICE (ADDS)</H2> OUTPUT PRODUCED BY METARS FORM (1549 UTC&NBSP;19 NOVEMBER 2011)<BR> FOUND AT <A HREF="/ADDS/METARS/INDEX.PHP"> HTTP://AVIATIONWEATHER.GOV/ADDS/METARS/INDEX.PHP</A><BR> <BR> </TD> </TR> <TR VALIGN="TOP"> <TD ALIGN="LEFT" COLSPAN="2"><FONT FACE="MONOSPACE,COURIER">UUEE 191530Z 25007MPS 3000 -SHRASN BKN007CB 01/01 Q0997 TEMPO 0900 +SHSN RMK 25550527 75550527</FONT><BR><FONT FACE="MONOSPACE,COURIER">UUWW 191530Z 24006MPS 3800 -SHRASN BKN006 OVC016CB 01/00 Q0999 19511045 NOSIG RMK QBB180</FONT><

15:49:04 wx generated for UUEE

15:49:05 KSC set to 27 based on wx

15:49:05 fs9 wx updated for UUEE

15:49:05 wx generated for UUWW

15:49:06 KSC set to 45 based on wx

15:49:06 fs9 wx updated for UUWW

15:49:06 surround update end **

15:49:06 UUDD 191530Z 25008MPS 8000 -SN BKN007 OVC100 01/01 Q0999 WS RWY32R 32590394 82590294 NOSIG

15:49:06 wx upd end $$$

15:54:18 wx upd begin $$$

15:54:18 surround update begin **

15:54:18 <!DOCTYPE HTML PUBLIC "-//W3C//DTD HTML 4.0//EN" "HTTP://WWW.W3.ORG/TR/REC-HTML40/STRICT.DTD"><HTML><HEAD><TITLE>ADDS - METARS FORM RESULTS</TITLE><LINK REL="STYLESHEET" TYPE="TEXT/CSS" HREF="/ADDS/LAYOUT/OPS/MYSTYLE.CSS"></HEAD><BODY BGCOLOR="#FFFFFF"> <TABLE SUMMARY="THIS TABLE IS USED FOR FORMATTING PURPOSES ONLY" BORDER=0 CELLPADDING=3 CELLSPACING=0> <TR VALIGN="TOP"> <TD ALIGN="LEFT" COLSPAN="2"> <H2>AVIATION DIGITAL DATA SERVICE (ADDS)</H2> OUTPUT PRODUCED BY METARS FORM (1554 UTC&NBSP;19 NOVEMBER 2011)<BR> FOUND AT <A HREF="/ADDS/METARS/INDEX.PHP"> HTTP://AVIATIONWEATHER.GOV/ADDS/METARS/INDEX.PHP</A><BR> <BR> </TD> </TR> <TR VALIGN="TOP"> <TD ALIGN="LEFT" COLSPAN="2"><FONT FACE="MONOSPACE,COURIER">UUEE 191530Z 25007MPS 3000 -SHRASN BKN007CB 01/01 Q0997 TEMPO 0900 +SHSN RMK 25550527 75550527</FONT><BR><FONT FACE="MONOSPACE,COURIER">UUWW 191530Z 24006MPS 3800 -SHRASN BKN006 OVC016CB 01/00 Q0999 19511045 NOSIG RMK QBB180</FONT><

15:54:18 wx generated for UUEE

15:54:20 KSC set to 27 based on wx

15:54:20 fs9 wx updated for UUEE

15:54:20 wx generated for UUWW

15:54:21 KSC set to 45 based on wx

15:54:21 fs9 wx updated for UUWW

15:54:21 surround update end **

15:54:21 UUDD 191530Z 25008MPS 8000 -SN BKN007 OVC100 01/01 Q0999 WS RWY32R 32590394 82590294 NOSIG

15:54:21 wx upd end $$$

15:59:33 wx upd begin $$$

15:59:33 surround update begin **

15:59:33 <!DOCTYPE HTML PUBLIC "-//W3C//DTD HTML 4.0//EN" "HTTP://WWW.W3.ORG/TR/REC-HTML40/STRICT.DTD"><HTML><HEAD><TITLE>ADDS - METARS FORM RESULTS</TITLE><LINK REL="STYLESHEET" TYPE="TEXT/CSS" HREF="/ADDS/LAYOUT/OPS/MYSTYLE.CSS"></HEAD><BODY BGCOLOR="#FFFFFF"> <TABLE SUMMARY="THIS TABLE IS USED FOR FORMATTING PURPOSES ONLY" BORDER=0 CELLPADDING=3 CELLSPACING=0> <TR VALIGN="TOP"> <TD ALIGN="LEFT" COLSPAN="2"> <H2>AVIATION DIGITAL DATA SERVICE (ADDS)</H2> OUTPUT PRODUCED BY METARS FORM (1559 UTC&NBSP;19 NOVEMBER 2011)<BR> FOUND AT <A HREF="/ADDS/METARS/INDEX.PHP"> HTTP://AVIATIONWEATHER.GOV/ADDS/METARS/INDEX.PHP</A><BR> <BR> </TD> </TR> <TR VALIGN="TOP"> <TD ALIGN="LEFT" COLSPAN="2"><FONT FACE="MONOSPACE,COURIER">UUEE 191530Z 25007MPS 3000 -SHRASN BKN007CB 01/01 Q0997 TEMPO 0900 +SHSN RMK 25550527 75550527</FONT><BR><FONT FACE="MONOSPACE,COURIER">UUWW 191530Z 24006MPS 3800 -SHRASN BKN006 OVC016CB 01/00 Q0999 19511045 NOSIG RMK QBB180</FONT><

15:59:33 wx generated for UUEE

15:59:34 KSC set to 27 based on wx

15:59:34 fs9 wx updated for UUEE

15:59:34 wx generated for UUWW

15:59:36 KSC set to 45 based on wx

15:59:36 fs9 wx updated for UUWW

15:59:36 surround update end **

15:59:36 UUDD 191530Z 25008MPS 8000 -SN BKN007 OVC100 01/01 Q0999 WS RWY32R 32590394 82590294 NOSIG

15:59:36 wx upd end $$$

16:04:48 wx upd begin $$$

16:04:48 surround update begin **

16:04:48 <!DOCTYPE HTML PUBLIC "-//W3C//DTD HTML 4.0//EN" "HTTP://WWW.W3.ORG/TR/REC-HTML40/STRICT.DTD"><HTML><HEAD><TITLE>ADDS - METARS FORM RESULTS</TITLE><LINK REL="STYLESHEET" TYPE="TEXT/CSS" HREF="/ADDS/LAYOUT/OPS/MYSTYLE.CSS"></HEAD><BODY BGCOLOR="#FFFFFF"> <TABLE SUMMARY="THIS TABLE IS USED FOR FORMATTING PURPOSES ONLY" BORDER=0 CELLPADDING=3 CELLSPACING=0> <TR VALIGN="TOP"> <TD ALIGN="LEFT" COLSPAN="2"> <H2>AVIATION DIGITAL DATA SERVICE (ADDS)</H2> OUTPUT PRODUCED BY METARS FORM (1604 UTC&NBSP;19 NOVEMBER 2011)<BR> FOUND AT <A HREF="/ADDS/METARS/INDEX.PHP"> HTTP://AVIATIONWEATHER.GOV/ADDS/METARS/INDEX.PHP</A><BR> <BR> </TD> </TR> <TR VALIGN="TOP"> <TD ALIGN="LEFT" COLSPAN="2"><FONT FACE="MONOSPACE,COURIER">UUEE 191530Z 25007MPS 3000 -SHRASN BKN007CB 01/01 Q0997 TEMPO 0900 +SHSN RMK 25550527 75550527</FONT><BR><FONT FACE="MONOSPACE,COURIER">UUWW 191530Z 24006MPS 3800 -SHRASN BKN006 OVC016CB 01/00 Q0999 19511045 NOSIG RMK QBB180</FONT><

16:04:48 wx generated for UUEE

16:04:50 KSC set to 27 based on wx

16:04:50 fs9 wx updated for UUEE

16:04:50 wx generated for UUWW

16:04:51 KSC set to 45 based on wx

16:04:51 fs9 wx updated for UUWW

16:04:51 surround update end **

16:04:51 UUDD 191530Z 25008MPS 8000 -SN BKN007 OVC100 01/01 Q0999 WS RWY32R 32590394 82590294 NOSIG

16:04:51 wx upd end $$$

16:08:30 wx refresh begin $$$

16:08:31 closest station found UUDD (FS=UUDD)

16:08:31 surround update begin **

16:08:31 <!DOCTYPE HTML PUBLIC "-//W3C//DTD HTML 4.0//EN" "HTTP://WWW.W3.ORG/TR/REC-HTML40/STRICT.DTD"><HTML><HEAD><TITLE>ADDS - METARS FORM RESULTS</TITLE><LINK REL="STYLESHEET" TYPE="TEXT/CSS" HREF="/ADDS/LAYOUT/OPS/MYSTYLE.CSS"></HEAD><BODY BGCOLOR="#FFFFFF"> <TABLE SUMMARY="THIS TABLE IS USED FOR FORMATTING PURPOSES ONLY" BORDER=0 CELLPADDING=3 CELLSPACING=0> <TR VALIGN="TOP"> <TD ALIGN="LEFT" COLSPAN="2"> <H2>AVIATION DIGITAL DATA SERVICE (ADDS)</H2> OUTPUT PRODUCED BY METARS FORM (1608 UTC&NBSP;19 NOVEMBER 2011)<BR> FOUND AT <A HREF="/ADDS/METARS/INDEX.PHP"> HTTP://AVIATIONWEATHER.GOV/ADDS/METARS/INDEX.PHP</A><BR> <BR> </TD> </TR> <TR VALIGN="TOP"> <TD ALIGN="LEFT" COLSPAN="2"><FONT FACE="MONOSPACE,COURIER">UUEE 191530Z 25007MPS 3000 -SHRASN BKN007CB 01/01 Q0997 TEMPO 0900 +SHSN RMK 25550527 75550527</FONT><BR><FONT FACE="MONOSPACE,COURIER">UUWW 191530Z 24006MPS 3800 -SHRASN BKN006 OVC016CB 01/00 Q0999 19511045 NOSIG RMK QBB180</FONT><

16:08:31 wx generated for UUEE

16:08:32 KSC set to 27 based on wx

16:08:32 fs9 wx updated for UUEE

16:08:32 wx generated for UUWW

16:08:33 KSC set to 45 based on wx

16:08:33 fs9 wx updated for UUWW

16:08:33 surround update end **

16:08:34 UUDD 191530Z 25008MPS 8000 -SN BKN007 OVC100 01/01 Q0999 WS RWY32R 32590394 82590294 NOSIG

16:08:35 simulated wind ok

16:08:35 wx generated for UUDD

16:08:36 KSC set to 94 based on wx

16:08:36 fs9 wx updated for UUDD

16:08:36 wx refresh end $$$

16:09:37 closest station found UUOO (FS=UUOO)

16:09:37 surround update begin **

16:09:38 <!DOCTYPE HTML PUBLIC "-//W3C//DTD HTML 4.0//EN" "HTTP://WWW.W3.ORG/TR/REC-HTML40/STRICT.DTD"><HTML><HEAD><TITLE>ADDS - METARS FORM RESULTS</TITLE><LINK REL="STYLESHEET" TYPE="TEXT/CSS" HREF="/ADDS/LAYOUT/OPS/MYSTYLE.CSS"></HEAD><BODY BGCOLOR="#FFFFFF"> <TABLE SUMMARY="THIS TABLE IS USED FOR FORMATTING PURPOSES ONLY" BORDER=0 CELLPADDING=3 CELLSPACING=0> <TR VALIGN="TOP"> <TD ALIGN="LEFT" COLSPAN="2"> <H2>AVIATION DIGITAL DATA SERVICE (ADDS)</H2> OUTPUT PRODUCED BY METARS FORM (1609 UTC&NBSP;19 NOVEMBER 2011)<BR> FOUND AT <A HREF="/ADDS/METARS/INDEX.PHP"> HTTP://AVIATIONWEATHER.GOV/ADDS/METARS/INDEX.PHP</A><BR> <BR> </TD> </TR> <TR VALIGN="TOP"> <TD ALIGN="LEFT" COLSPAN="2"><FONT FACE="MONOSPACE,COURIER">UUEE 191530Z 25007MPS 3000 -SHRASN BKN007CB 01/01 Q0997 TEMPO 0900 +SHSN RMK 25550527 75550527</FONT><BR><FONT FACE="MONOSPACE,COURIER">UUWW 191530Z 24006MPS 3800 -SHRASN BKN006 OVC016CB 01/00 Q0999 19511045 NOSIG RMK QBB180</FONT><

16:09:38 wx generated for UUEE

16:09:39 KSC set to 27 based on wx

16:09:39 fs9 wx updated for UUEE

16:09:39 wx generated for UUWW

16:09:40 KSC set to 45 based on wx

16:09:40 fs9 wx updated for UUWW

16:09:40 surround update end **

16:09:40 UUOO 191530Z 24005G08MPS 7000 OVC015 01/M01 Q1011 NOSIG RMK 30290250

16:09:41 simulated wind ok

16:09:41 wx generated for UUOO

16:09:42 KSC set to 50 based on wx

16:09:42 fs9 wx updated for UUOO

16:11:00 wx refresh begin $$$

16:11:00 closest station found UUOO (FS=UUOO)

16:11:00 surround update begin **

16:11:00 <!DOCTYPE HTML PUBLIC "-//W3C//DTD HTML 4.0//EN" "HTTP://WWW.W3.ORG/TR/REC-HTML40/STRICT.DTD"><HTML><HEAD><TITLE>ADDS - METARS FORM RESULTS</TITLE><LINK REL="STYLESHEET" TYPE="TEXT/CSS" HREF="/ADDS/LAYOUT/OPS/MYSTYLE.CSS"></HEAD><BODY BGCOLOR="#FFFFFF"> <TABLE SUMMARY="THIS TABLE IS USED FOR FORMATTING PURPOSES ONLY" BORDER=0 CELLPADDING=3 CELLSPACING=0> <TR VALIGN="TOP"> <TD ALIGN="LEFT" COLSPAN="2"> <H2>AVIATION DIGITAL DATA SERVICE (ADDS)</H2> OUTPUT PRODUCED BY METARS FORM (1610 UTC&NBSP;19 NOVEMBER 2011)<BR> FOUND AT <A HREF="/ADDS/METARS/INDEX.PHP"> HTTP://AVIATIONWEATHER.GOV/ADDS/METARS/INDEX.PHP</A><BR> <BR> </TD> </TR> <TR VALIGN="TOP"> <TD ALIGN="LEFT" COLSPAN="2"><FONT FACE="MONOSPACE,COURIER">UUEE 191530Z 25007MPS 3000 -SHRASN BKN007CB 01/01 Q0997 TEMPO 0900 +SHSN RMK 25550527 75550527</FONT><BR><FONT FACE="MONOSPACE,COURIER">UUWW 191530Z 24006MPS 3800 -SHRASN BKN006 OVC016CB 01/00 Q0999 19511045 NOSIG RMK QBB180</FONT><

16:11:00 wx generated for UUEE

16:11:02 KSC set to 27 based on wx

16:11:02 fs9 wx updated for UUEE

16:11:02 wx generated for UUWW

16:11:03 KSC set to 45 based on wx

16:11:03 fs9 wx updated for UUWW

16:11:03 surround update end **

16:11:03 UUOO 191530Z 24005G08MPS 7000 OVC015 01/M01 Q1011 NOSIG RMK 30290250

16:11:04 simulated wind ok

16:11:04 wx generated for UUOO

16:11:05 KSC set to 50 based on wx

16:11:05 fs9 wx updated for UUOO

16:11:05 wx refresh end $$$

16:13:07 wx refresh begin $$$

16:13:07 closest station found UUOO (FS=UUOO)

16:13:07 surround update begin **

16:13:08 <!DOCTYPE HTML PUBLIC "-//W3C//DTD HTML 4.0//EN" "HTTP://WWW.W3.ORG/TR/REC-HTML40/STRICT.DTD"><HTML><HEAD><TITLE>ADDS - METARS FORM RESULTS</TITLE><LINK REL="STYLESHEET" TYPE="TEXT/CSS" HREF="/ADDS/LAYOUT/OPS/MYSTYLE.CSS"></HEAD><BODY BGCOLOR="#FFFFFF"> <TABLE SUMMARY="THIS TABLE IS USED FOR FORMATTING PURPOSES ONLY" BORDER=0 CELLPADDING=3 CELLSPACING=0> <TR VALIGN="TOP"> <TD ALIGN="LEFT" COLSPAN="2"> <H2>AVIATION DIGITAL DATA SERVICE (ADDS)</H2> OUTPUT PRODUCED BY METARS FORM (1613 UTC&NBSP;19 NOVEMBER 2011)<BR> FOUND AT <A HREF="/ADDS/METARS/INDEX.PHP"> HTTP://AVIATIONWEATHER.GOV/ADDS/METARS/INDEX.PHP</A><BR> <BR> </TD> </TR> <TR VALIGN="TOP"> <TD ALIGN="LEFT" COLSPAN="2"><FONT FACE="MONOSPACE,COURIER">UUEE 191600Z 26008MPS 3000 -RA OVC006 01/01 Q0998 NOSIG RMK 75550337 25550337</FONT><BR><FONT FACE="MONOSPACE,COURIER">UUWW 191600Z 25005MPS 3800 -SHRASN BKN006 OVC016CB 01/00 Q0999 19511045 NOSIG RMK QBB180</FONT><BR><FONT FACE="MON

16:13:08 wx generated for UUEE

16:13:09 KSC set to 37 based on wx

16:13:09 fs9 wx updated for UUEE

16:13:09 wx generated for UUWW

16:13:10 KSC set to 45 based on wx

16:13:10 fs9 wx updated for UUWW

16:13:10 wx generated for

16:13:10 surround update end **

16:13:10 UUOO 191530Z 24005G08MPS 7000 OVC015 01/M01 Q1011 NOSIG RMK 30290250

16:13:11 simulated wind ok

16:13:12 wx generated for UUOO

16:13:13 KSC set to 50 based on wx

16:13:13 fs9 wx updated for UUOO

16:13:13 wx refresh end $$$

16:18:24 wx upd begin $$$

16:18:25 surround update begin **

16:18:25 <!DOCTYPE HTML PUBLIC "-//W3C//DTD HTML 4.0//EN" "HTTP://WWW.W3.ORG/TR/REC-HTML40/STRICT.DTD"><HTML><HEAD><TITLE>ADDS - METARS FORM RESULTS</TITLE><LINK REL="STYLESHEET" TYPE="TEXT/CSS" HREF="/ADDS/LAYOUT/OPS/MYSTYLE.CSS"></HEAD><BODY BGCOLOR="#FFFFFF"> <TABLE SUMMARY="THIS TABLE IS USED FOR FORMATTING PURPOSES ONLY" BORDER=0 CELLPADDING=3 CELLSPACING=0> <TR VALIGN="TOP"> <TD ALIGN="LEFT" COLSPAN="2"> <H2>AVIATION DIGITAL DATA SERVICE (ADDS)</H2> OUTPUT PRODUCED BY METARS FORM (1618 UTC&NBSP;19 NOVEMBER 2011)<BR> FOUND AT <A HREF="/ADDS/METARS/INDEX.PHP"> HTTP://AVIATIONWEATHER.GOV/ADDS/METARS/INDEX.PHP</A><BR> <BR> </TD> </TR> <TR VALIGN="TOP"> <TD ALIGN="LEFT" COLSPAN="2"><FONT FACE="MONOSPACE,COURIER">UUEE 191600Z 26008MPS 3000 -RA OVC006 01/01 Q0998 NOSIG RMK 75550337 25550337</FONT><BR><FONT FACE="MONOSPACE,COURIER">UUWW 191600Z 25005MPS 3800 -SHRASN BKN006 OVC016CB 01/00 Q0999 19511045 NOSIG RMK QBB180</FONT><BR><FONT FACE="MON

16:18:25 wx generated for UUEE

16:18:26 KSC set to 37 based on wx

16:18:26 fs9 wx updated for UUEE

16:18:26 wx generated for UUWW

16:18:27 KSC set to 45 based on wx

16:18:27 fs9 wx updated for UUWW

16:18:27 wx generated for

16:18:27 surround update end **

16:18:27 UUOO 191600Z 25005G08MPS 6000 OVC013 01/M02 Q1011 TEMPO 1400 RASN BKN004 RMK 30290250

16:18:27 wx generated for UUOO

16:18:29 KSC set to 50 based on wx

16:18:29 fs9 wx updated for UUOO

16:18:29 wx upd end $$$

16:23:41 wx upd begin $$$

16:23:41 surround update begin **

16:23:41 <!DOCTYPE HTML PUBLIC "-//W3C//DTD HTML 4.0//EN" "HTTP://WWW.W3.ORG/TR/REC-HTML40/STRICT.DTD"><HTML><HEAD><TITLE>ADDS - METARS FORM RESULTS</TITLE><LINK REL="STYLESHEET" TYPE="TEXT/CSS" HREF="/ADDS/LAYOUT/OPS/MYSTYLE.CSS"></HEAD><BODY BGCOLOR="#FFFFFF"> <TABLE SUMMARY="THIS TABLE IS USED FOR FORMATTING PURPOSES ONLY" BORDER=0 CELLPADDING=3 CELLSPACING=0> <TR VALIGN="TOP"> <TD ALIGN="LEFT" COLSPAN="2"> <H2>AVIATION DIGITAL DATA SERVICE (ADDS)</H2> OUTPUT PRODUCED BY METARS FORM (1623 UTC&NBSP;19 NOVEMBER 2011)<BR> FOUND AT <A HREF="/ADDS/METARS/INDEX.PHP"> HTTP://AVIATIONWEATHER.GOV/ADDS/METARS/INDEX.PHP</A><BR> <BR> </TD> </TR> <TR VALIGN="TOP"> <TD ALIGN="LEFT" COLSPAN="2"><FONT FACE="MONOSPACE,COURIER">UUEE 191600Z 26008MPS 3000 -RA OVC006 01/01 Q0998 NOSIG RMK 75550337 25550337</FONT><BR><FONT FACE="MONOSPACE,COURIER">UUWW 191600Z 25005MPS 3800 -SHRASN BKN006 OVC016CB 01/00 Q0999 19511045 NOSIG RMK QBB180</FONT><BR><FONT FACE="MON

16:23:41 wx generated for UUEE

16:23:42 KSC set to 37 based on wx

16:23:42 fs9 wx updated for UUEE

16:23:42 wx generated for UUWW

16:23:44 KSC set to 45 based on wx

16:23:44 fs9 wx updated for UUWW

16:23:44 wx generated for

16:23:44 surround update end **

16:23:44 UUOO 191600Z 25005G08MPS 6000 OVC013 01/M02 Q1011 TEMPO 1400 RASN BKN004 RMK 30290250

16:23:44 wx upd end $$$

16:28:56 wx upd begin $$$

16:28:56 surround update begin **

16:28:56 <!DOCTYPE HTML PUBLIC "-//W3C//DTD HTML 4.0//EN" "HTTP://WWW.W3.ORG/TR/REC-HTML40/STRICT.DTD"><HTML><HEAD><TITLE>ADDS - METARS FORM RESULTS</TITLE><LINK REL="STYLESHEET" TYPE="TEXT/CSS" HREF="/ADDS/LAYOUT/OPS/MYSTYLE.CSS"></HEAD><BODY BGCOLOR="#FFFFFF"> <TABLE SUMMARY="THIS TABLE IS USED FOR FORMATTING PURPOSES ONLY" BORDER=0 CELLPADDING=3 CELLSPACING=0> <TR VALIGN="TOP"> <TD ALIGN="LEFT" COLSPAN="2"> <H2>AVIATION DIGITAL DATA SERVICE (ADDS)</H2> OUTPUT PRODUCED BY METARS FORM (1628 UTC&NBSP;19 NOVEMBER 2011)<BR> FOUND AT <A HREF="/ADDS/METARS/INDEX.PHP"> HTTP://AVIATIONWEATHER.GOV/ADDS/METARS/INDEX.PHP</A><BR> <BR> </TD> </TR> <TR VALIGN="TOP"> <TD ALIGN="LEFT" COLSPAN="2"><FONT FACE="MONOSPACE,COURIER">UUEE 191600Z 26008MPS 3000 -RA OVC006 01/01 Q0998 NOSIG RMK 75550337 25550337</FONT><BR><FONT FACE="MONOSPACE,COURIER">UUWW 191600Z 25005MPS 3800 -SHRASN BKN006 OVC016CB 01/00 Q0999 19511045 NOSIG RMK QBB180</FONT><BR><FONT FACE="MON

16:28:56 wx generated for UUEE

16:28:57 KSC set to 37 based on wx

16:28:57 fs9 wx updated for UUEE

16:28:57 wx generated for UUWW

16:28:58 KSC set to 45 based on wx

16:28:58 fs9 wx updated for UUWW

16:28:58 wx generated for

16:28:59 surround update end **

16:28:59 UUOO 191600Z 25005G08MPS 6000 OVC013 01/M02 Q1011 TEMPO 1400 RASN BKN004 RMK 30290250

16:28:59 wx upd end $$$

16:34:04 wx refresh begin $$$

16:34:04 closest station found UUOO (FS=UUOO)

16:34:04 surround update begin **

16:34:04 <!DOCTYPE HTML PUBLIC "-//W3C//DTD HTML 4.0//EN" "HTTP://WWW.W3.ORG/TR/REC-HTML40/STRICT.DTD"><HTML><HEAD><TITLE>ADDS - METARS FORM RESULTS</TITLE><LINK REL="STYLESHEET" TYPE="TEXT/CSS" HREF="/ADDS/LAYOUT/OPS/MYSTYLE.CSS"></HEAD><BODY BGCOLOR="#FFFFFF"> <TABLE SUMMARY="THIS TABLE IS USED FOR FORMATTING PURPOSES ONLY" BORDER=0 CELLPADDING=3 CELLSPACING=0> <TR VALIGN="TOP"> <TD ALIGN="LEFT" COLSPAN="2"> <H2>AVIATION DIGITAL DATA SERVICE (ADDS)</H2> OUTPUT PRODUCED BY METARS FORM (1634 UTC&NBSP;19 NOVEMBER 2011)<BR> FOUND AT <A HREF="/ADDS/METARS/INDEX.PHP"> HTTP://AVIATIONWEATHER.GOV/ADDS/METARS/INDEX.PHP</A><BR> <BR> </TD> </TR> <TR VALIGN="TOP"> <TD ALIGN="LEFT" COLSPAN="2"><FONT FACE="MONOSPACE,COURIER">UUEE 191600Z 26008MPS 3000 -RA OVC006 01/01 Q0998 NOSIG RMK 75550337 25550337</FONT><BR><FONT FACE="MONOSPACE,COURIER">UUWW 191600Z 25005MPS 3800 -SHRASN BKN006 OVC016CB 01/00 Q0999 19511045 NOSIG RMK QBB180</FONT><BR><FONT FACE="MON

16:34:04 wx generated for UUEE

16:34:06 KSC set to 37 based on wx

16:34:06 fs9 wx updated for UUEE

16:34:06 wx generated for UUWW

16:34:07 KSC set to 45 based on wx

16:34:07 fs9 wx updated for UUWW

16:34:07 wx generated for

16:34:07 surround update end **

16:34:07 UUOO 191600Z 25005G08MPS 6000 OVC013 01/M02 Q1011 TEMPO 1400 RASN BKN004 RMK 30290250

16:34:08 simulated wind ok

16:34:08 wx generated for UUOO

16:34:09 KSC set to 50 based on wx

16:34:09 fs9 wx updated for UUOO

16:34:09 wx refresh end $$$

16:37:14 closest station found UKCW (FS=URRR)

16:37:14 surround update begin **

16:37:14 <!DOCTYPE HTML PUBLIC "-//W3C//DTD HTML 4.0//EN" "HTTP://WWW.W3.ORG/TR/REC-HTML40/STRICT.DTD"><HTML><HEAD><TITLE>ADDS - METARS FORM RESULTS</TITLE><LINK REL="STYLESHEET" TYPE="TEXT/CSS" HREF="/ADDS/LAYOUT/OPS/MYSTYLE.CSS"></HEAD><BODY BGCOLOR="#FFFFFF"> <TABLE SUMMARY="THIS TABLE IS USED FOR FORMATTING PURPOSES ONLY" BORDER=0 CELLPADDING=3 CELLSPACING=0> <TR VALIGN="TOP"> <TD ALIGN="LEFT" COLSPAN="2"> <H2>AVIATION DIGITAL DATA SERVICE (ADDS)</H2> OUTPUT PRODUCED BY METARS FORM (1637 UTC&NBSP;19 NOVEMBER 2011)<BR> FOUND AT <A HREF="/ADDS/METARS/INDEX.PHP"> HTTP://AVIATIONWEATHER.GOV/ADDS/METARS/INDEX.PHP</A><BR> <BR> </TD> </TR> <TR VALIGN="TOP"> <TD ALIGN="LEFT" COLSPAN="2"><FONT FACE="MONOSPACE,COURIER">UUEE 191600Z 26008MPS 3000 -RA OVC006 01/01 Q0998 NOSIG RMK 75550337 25550337</FONT><BR><FONT FACE="MONOSPACE,COURIER">UUWW 191600Z 25005MPS 3800 -SHRASN BKN006 OVC016CB 01/00 Q0999 19511045 NOSIG RMK QBB180</FONT><BR><FONT FACE="MON

16:37:14 wx generated for UUEE

16:37:16 KSC set to 37 based on wx

16:37:16 fs9 wx updated for UUEE

16:37:16 wx generated for UUWW

16:37:17 KSC set to 45 based on wx

16:37:17 fs9 wx updated for UUWW

16:37:17 wx generated for

16:37:17 surround update end **

16:37:17 UKCW 191600Z 21005MPS 9999 BKN022 02/M01 Q1018 2709//70 TEMPO 3100 BR SCT011

16:37:19 simulated wind ok

16:37:19 wx generated for URRR

16:37:20 KSC set to 70 based on wx

16:37:20 fs9 wx updated for URRR

16:42:32 wx upd begin $$$

16:42:32 surround update begin **

16:42:32 <!DOCTYPE HTML PUBLIC "-//W3C//DTD HTML 4.0//EN" "HTTP://WWW.W3.ORG/TR/REC-HTML40/STRICT.DTD"><HTML><HEAD><TITLE>ADDS - METARS FORM RESULTS</TITLE><LINK REL="STYLESHEET" TYPE="TEXT/CSS" HREF="/ADDS/LAYOUT/OPS/MYSTYLE.CSS"></HEAD><BODY BGCOLOR="#FFFFFF"> <TABLE SUMMARY="THIS TABLE IS USED FOR FORMATTING PURPOSES ONLY" BORDER=0 CELLPADDING=3 CELLSPACING=0> <TR VALIGN="TOP"> <TD ALIGN="LEFT" COLSPAN="2"> <H2>AVIATION DIGITAL DATA SERVICE (ADDS)</H2> OUTPUT PRODUCED BY METARS FORM (1642 UTC&NBSP;19 NOVEMBER 2011)<BR> FOUND AT <A HREF="/ADDS/METARS/INDEX.PHP"> HTTP://AVIATIONWEATHER.GOV/ADDS/METARS/INDEX.PHP</A><BR> <BR> </TD> </TR> <TR VALIGN="TOP"> <TD ALIGN="LEFT" COLSPAN="2"><FONT FACE="MONOSPACE,COURIER">UUEE 191600Z 26008MPS 3000 -RA OVC006 01/01 Q0998 NOSIG RMK 75550337 25550337</FONT><BR><FONT FACE="MONOSPACE,COURIER">UUWW 191600Z 25005MPS 3800 -SHRASN BKN006 OVC016CB 01/00 Q0999 19511045 NOSIG RMK QBB180</FONT><BR><FONT FACE="MON

16:42:32 wx generated for UUEE

16:42:34 KSC set to 37 based on wx

16:42:34 fs9 wx updated for UUEE

16:42:34 wx generated for UUWW

16:42:35 KSC set to 45 based on wx

16:42:35 fs9 wx updated for UUWW

16:42:35 wx generated for

16:42:35 surround update end **

16:42:35 UKCW 191630Z 21004MPS 9999 SCT012 BKN022 02/M01 Q1018 2709//70 TEMPO 3100 BR SCT011

16:42:35 wx generated for URRR

16:42:36 KSC set to 70 based on wx

16:42:36 fs9 wx updated for URRR

16:42:36 wx upd end $$$

16:47:48 wx upd begin $$$

16:47:48 surround update begin **

16:47:49 <!DOCTYPE HTML PUBLIC "-//W3C//DTD HTML 4.0//EN" "HTTP://WWW.W3.ORG/TR/REC-HTML40/STRICT.DTD"><HTML><HEAD><TITLE>ADDS - METARS FORM RESULTS</TITLE><LINK REL="STYLESHEET" TYPE="TEXT/CSS" HREF="/ADDS/LAYOUT/OPS/MYSTYLE.CSS"></HEAD><BODY BGCOLOR="#FFFFFF"> <TABLE SUMMARY="THIS TABLE IS USED FOR FORMATTING PURPOSES ONLY" BORDER=0 CELLPADDING=3 CELLSPACING=0> <TR VALIGN="TOP"> <TD ALIGN="LEFT" COLSPAN="2"> <H2>AVIATION DIGITAL DATA SERVICE (ADDS)</H2> OUTPUT PRODUCED BY METARS FORM (1647 UTC&NBSP;19 NOVEMBER 2011)<BR> FOUND AT <A HREF="/ADDS/METARS/INDEX.PHP"> HTTP://AVIATIONWEATHER.GOV/ADDS/METARS/INDEX.PHP</A><BR> <BR> </TD> </TR> <TR VALIGN="TOP"> <TD ALIGN="LEFT" COLSPAN="2"><FONT FACE="MONOSPACE,COURIER">UUEE 191600Z 26008MPS 3000 -RA OVC006 01/01 Q0998 NOSIG RMK 75550337 25550337</FONT><BR><FONT FACE="MONOSPACE,COURIER">UUWW 191600Z 25005MPS 3800 -SHRASN BKN006 OVC016CB 01/00 Q0999 19511045 NOSIG RMK QBB180</FONT><BR><FONT FACE="MON

16:47:49 wx generated for UUEE

16:47:50 KSC set to 37 based on wx

16:47:50 fs9 wx updated for UUEE

16:47:50 wx generated for UUWW

16:47:51 KSC set to 45 based on wx

16:47:51 fs9 wx updated for UUWW

16:47:51 wx generated for

16:47:51 surround update end **

16:47:52 UKCW 191630Z 21004MPS 9999 SCT012 BKN022 02/M01 Q1018 2709//70 TEMPO 3100 BR SCT011

16:47:52 wx upd end $$$

16:53:03 closest station found URRR (FS=URRR)

16:53:03 surround update begin **

16:53:04 <!DOCTYPE HTML PUBLIC "-//W3C//DTD HTML 4.0//EN" "HTTP://WWW.W3.ORG/TR/REC-HTML40/STRICT.DTD"><HTML><HEAD><TITLE>ADDS - METARS FORM RESULTS</TITLE><LINK REL="STYLESHEET" TYPE="TEXT/CSS" HREF="/ADDS/LAYOUT/OPS/MYSTYLE.CSS"></HEAD><BODY BGCOLOR="#FFFFFF"> <TABLE SUMMARY="THIS TABLE IS USED FOR FORMATTING PURPOSES ONLY" BORDER=0 CELLPADDING=3 CELLSPACING=0> <TR VALIGN="TOP"> <TD ALIGN="LEFT" COLSPAN="2"> <H2>AVIATION DIGITAL DATA SERVICE (ADDS)</H2> OUTPUT PRODUCED BY METARS FORM (1653 UTC&NBSP;19 NOVEMBER 2011)<BR> FOUND AT <A HREF="/ADDS/METARS/INDEX.PHP"> HTTP://AVIATIONWEATHER.GOV/ADDS/METARS/INDEX.PHP</A><BR> <BR> </TD> </TR> <TR VALIGN="TOP"> <TD ALIGN="LEFT" COLSPAN="2"><FONT FACE="MONOSPACE,COURIER">UUEE 191630Z 27007MPS 4300 -RA OVC006 01/01 Q0998 NOSIG RMK 75550337 25550337</FONT><BR><FONT FACE="MONOSPACE,COURIER">UUWW 191630Z 25007MPS 5000 -SHRA BKN007 OVC016CB 01/01 Q0999 19511045 NOSIG</FONT><BR><FONT FACE="MONOSPACE,COURIER"

16:53:04 wx generated for UUEE

16:53:05 KSC set to 37 based on wx

16:53:05 fs9 wx updated for UUEE

16:53:05 wx generated for UUWW

16:53:06 KSC set to 45 based on wx

16:53:06 fs9 wx updated for UUWW

16:53:06 wx generated for

16:53:06 surround update end **

16:53:06 URRR 191630Z 23004MPS 7000 SCT016 FEW033CB BKN100 04/01 Q1020 NOSIG RMK SC060

16:53:08 simulated wind ok

16:53:09 wx generated for URRR

16:53:10 KSC set to 79 based on wx

16:53:10 fs9 wx updated for URRR

16:58:22 wx upd begin $$$

16:58:22 surround update begin **

16:58:22 <!DOCTYPE HTML PUBLIC "-//W3C//DTD HTML 4.0//EN" "HTTP://WWW.W3.ORG/TR/REC-HTML40/STRICT.DTD"><HTML><HEAD><TITLE>ADDS - METARS FORM RESULTS</TITLE><LINK REL="STYLESHEET" TYPE="TEXT/CSS" HREF="/ADDS/LAYOUT/OPS/MYSTYLE.CSS"></HEAD><BODY BGCOLOR="#FFFFFF"> <TABLE SUMMARY="THIS TABLE IS USED FOR FORMATTING PURPOSES ONLY" BORDER=0 CELLPADDING=3 CELLSPACING=0> <TR VALIGN="TOP"> <TD ALIGN="LEFT" COLSPAN="2"> <H2>AVIATION DIGITAL DATA SERVICE (ADDS)</H2> OUTPUT PRODUCED BY METARS FORM (1658 UTC&NBSP;19 NOVEMBER 2011)<BR> FOUND AT <A HREF="/ADDS/METARS/INDEX.PHP"> HTTP://AVIATIONWEATHER.GOV/ADDS/METARS/INDEX.PHP</A><BR> <BR> </TD> </TR> <TR VALIGN="TOP"> <TD ALIGN="LEFT" COLSPAN="2"><FONT FACE="MONOSPACE,COURIER">UUEE 191630Z 27007MPS 4300 -RA OVC006 01/01 Q0998 NOSIG RMK 75550337 25550337</FONT><BR><FONT FACE="MONOSPACE,COURIER">UUWW 191630Z 25007MPS 5000 -SHRA BKN007 OVC016CB 01/01 Q0999 19511045 NOSIG</FONT><BR><FONT FACE="MONOSPACE,COURIER"

16:58:22 wx generated for UUEE

16:58:23 KSC set to 37 based on wx

16:58:23 fs9 wx updated for UUEE

16:58:23 wx generated for UUWW

16:58:24 KSC set to 45 based on wx

16:58:24 fs9 wx updated for UUWW

16:58:24 wx generated for

16:58:25 surround update end **

16:58:25 URRR 191630Z 23004MPS 7000 SCT016 FEW033CB BKN100 04/01 Q1020 NOSIG RMK SC060

16:58:25 wx upd end $$$

17:03:37 wx upd begin $$$

17:03:37 surround update begin **

17:03:37 <!DOCTYPE HTML PUBLIC "-//W3C//DTD HTML 4.0//EN" "HTTP://WWW.W3.ORG/TR/REC-HTML40/STRICT.DTD"><HTML><HEAD><TITLE>ADDS - METARS FORM RESULTS</TITLE><LINK REL="STYLESHEET" TYPE="TEXT/CSS" HREF="/ADDS/LAYOUT/OPS/MYSTYLE.CSS"></HEAD><BODY BGCOLOR="#FFFFFF"> <TABLE SUMMARY="THIS TABLE IS USED FOR FORMATTING PURPOSES ONLY" BORDER=0 CELLPADDING=3 CELLSPACING=0> <TR VALIGN="TOP"> <TD ALIGN="LEFT" COLSPAN="2"> <H2>AVIATION DIGITAL DATA SERVICE (ADDS)</H2> OUTPUT PRODUCED BY METARS FORM (1703 UTC&NBSP;19 NOVEMBER 2011)<BR> FOUND AT <A HREF="/ADDS/METARS/INDEX.PHP"> HTTP://AVIATIONWEATHER.GOV/ADDS/METARS/INDEX.PHP</A><BR> <BR> </TD> </TR> <TR VALIGN="TOP"> <TD ALIGN="LEFT" COLSPAN="2"><FONT FACE="MONOSPACE,COURIER">UUEE 191630Z 27007MPS 4300 -RA OVC006 01/01 Q0998 NOSIG RMK 75550337 25550337</FONT><BR><FONT FACE="MONOSPACE,COURIER">UUWW 191630Z 25007MPS 5000 -SHRA BKN007 OVC016CB 01/01 Q0999 19511045 NOSIG</FONT><BR><FONT FACE="MONOSPACE,COURIER"

17:03:37 wx generated for UUEE

17:03:38 KSC set to 37 based on wx

17:03:38 fs9 wx updated for UUEE

17:03:38 wx generated for UUWW

17:03:40 KSC set to 45 based on wx

17:03:40 fs9 wx updated for UUWW

17:03:40 wx generated for

17:03:40 surround update end **

17:03:40 URRR 191630Z 23004MPS 7000 SCT016 FEW033CB BKN100 04/01 Q1020 NOSIG RMK SC060

17:03:40 wx upd end $$$

17:08:52 wx upd begin $$$

17:08:52 surround update begin **

17:08:52 <!DOCTYPE HTML PUBLIC "-//W3C//DTD HTML 4.0//EN" "HTTP://WWW.W3.ORG/TR/REC-HTML40/STRICT.DTD"><HTML><HEAD><TITLE>ADDS - METARS FORM RESULTS</TITLE><LINK REL="STYLESHEET" TYPE="TEXT/CSS" HREF="/ADDS/LAYOUT/OPS/MYSTYLE.CSS"></HEAD><BODY BGCOLOR="#FFFFFF"> <TABLE SUMMARY="THIS TABLE IS USED FOR FORMATTING PURPOSES ONLY" BORDER=0 CELLPADDING=3 CELLSPACING=0> <TR VALIGN="TOP"> <TD ALIGN="LEFT" COLSPAN="2"> <H2>AVIATION DIGITAL DATA SERVICE (ADDS)</H2> OUTPUT PRODUCED BY METARS FORM (1708 UTC&NBSP;19 NOVEMBER 2011)<BR> FOUND AT <A HREF="/ADDS/METARS/INDEX.PHP"> HTTP://AVIATIONWEATHER.GOV/ADDS/METARS/INDEX.PHP</A><BR> <BR> </TD> </TR> <TR VALIGN="TOP"> <TD ALIGN="LEFT" COLSPAN="2"><FONT FACE="MONOSPACE,COURIER">UUEE 191630Z 27007MPS 4300 -RA OVC006 01/01 Q0998 NOSIG RMK 75550337 25550337</FONT><BR><FONT FACE="MONOSPACE,COURIER">UUWW 191630Z 25007MPS 5000 -SHRA BKN007 OVC016CB 01/01 Q0999 19511045 NOSIG</FONT><BR><FONT FACE="MONOSPACE,COURIER"

17:08:52 wx generated for UUEE

17:08:53 KSC set to 37 based on wx

17:08:53 fs9 wx updated for UUEE

17:08:53 wx generated for UUWW

17:08:55 KSC set to 45 based on wx

17:08:55 fs9 wx updated for UUWW

17:08:55 wx generated for

17:08:55 surround update end **

17:08:55 URRR 191630Z 23004MPS 7000 SCT016 FEW033CB BKN100 04/01 Q1020 NOSIG RMK SC060

17:08:55 wx upd end $$$

17:09:57 closest station found URKK (FS=URKK)

17:09:57 surround update begin **

17:09:58 <!DOCTYPE HTML PUBLIC "-//W3C//DTD HTML 4.0//EN" "HTTP://WWW.W3.ORG/TR/REC-HTML40/STRICT.DTD"><HTML><HEAD><TITLE>ADDS - METARS FORM RESULTS</TITLE><LINK REL="STYLESHEET" TYPE="TEXT/CSS" HREF="/ADDS/LAYOUT/OPS/MYSTYLE.CSS"></HEAD><BODY BGCOLOR="#FFFFFF"> <TABLE SUMMARY="THIS TABLE IS USED FOR FORMATTING PURPOSES ONLY" BORDER=0 CELLPADDING=3 CELLSPACING=0> <TR VALIGN="TOP"> <TD ALIGN="LEFT" COLSPAN="2"> <H2>AVIATION DIGITAL DATA SERVICE (ADDS)</H2> OUTPUT PRODUCED BY METARS FORM (1709 UTC&NBSP;19 NOVEMBER 2011)<BR> FOUND AT <A HREF="/ADDS/METARS/INDEX.PHP"> HTTP://AVIATIONWEATHER.GOV/ADDS/METARS/INDEX.PHP</A><BR> <BR> </TD> </TR> <TR VALIGN="TOP"> <TD ALIGN="LEFT" COLSPAN="2"><FONT FACE="MONOSPACE,COURIER">UUEE 191700Z 27006MPS 5000 -RA OVC007 02/02 Q0998 NOSIG RMK 75550337 25550337</FONT><BR><FONT FACE="MONOSPACE,COURIER">UUWW 191700Z 26006MPS 5000 -SHRASN BKN007 OVC016CB 02/01 Q0999 19511045 NOSIG</FONT><BR><FONT FACE="MONOSPACE,COURIE

17:09:58 wx generated for UUEE

17:09:59 KSC set to 37 based on wx

17:09:59 fs9 wx updated for UUEE

17:09:59 wx generated for UUWW

17:10:00 KSC set to 45 based on wx

17:10:00 fs9 wx updated for UUWW

17:10:00 wx generated for

17:10:00 surround update end **

17:10:00 URKK 191700Z 18003MPS 140V200 9999 BKN035 05/02 Q1023 NOSIG RMK QFE764 SC065

17:10:02 simulated wind ok

17:10:02 wx generated for URKK

17:10:03 KSC set to 79 based on wx

17:10:03 fs9 wx updated for URKK

17:15:15 wx upd begin $$$

17:15:15 surround update begin **

17:15:15 <!DOCTYPE HTML PUBLIC "-//W3C//DTD HTML 4.0//EN" "HTTP://WWW.W3.ORG/TR/REC-HTML40/STRICT.DTD"><HTML><HEAD><TITLE>ADDS - METARS FORM RESULTS</TITLE><LINK REL="STYLESHEET" TYPE="TEXT/CSS" HREF="/ADDS/LAYOUT/OPS/MYSTYLE.CSS"></HEAD><BODY BGCOLOR="#FFFFFF"> <TABLE SUMMARY="THIS TABLE IS USED FOR FORMATTING PURPOSES ONLY" BORDER=0 CELLPADDING=3 CELLSPACING=0> <TR VALIGN="TOP"> <TD ALIGN="LEFT" COLSPAN="2"> <H2>AVIATION DIGITAL DATA SERVICE (ADDS)</H2> OUTPUT PRODUCED BY METARS FORM (1715 UTC&NBSP;19 NOVEMBER 2011)<BR> FOUND AT <A HREF="/ADDS/METARS/INDEX.PHP"> HTTP://AVIATIONWEATHER.GOV/ADDS/METARS/INDEX.PHP</A><BR> <BR> </TD> </TR> <TR VALIGN="TOP"> <TD ALIGN="LEFT" COLSPAN="2"><FONT FACE="MONOSPACE,COURIER">UUEE 191700Z 27006MPS 5000 -RA OVC007 02/02 Q0998 NOSIG RMK 75550337 25550337</FONT><BR><FONT FACE="MONOSPACE,COURIER">UUWW 191700Z 26006MPS 5000 -SHRASN BKN007 OVC016CB 02/01 Q0999 19511045 NOSIG</FONT><BR><FONT FACE="MONOSPACE,COURIE

17:15:15 wx generated for UUEE

17:15:16 KSC set to 37 based on wx

17:15:16 fs9 wx updated for UUEE

17:15:16 wx generated for UUWW

17:15:18 KSC set to 45 based on wx

17:15:18 fs9 wx updated for UUWW

17:15:18 wx generated for

17:15:18 surround update end **

17:15:18 URKK 191700Z 18003MPS 140V200 9999 BKN035 05/02 Q1023 NOSIG RMK QFE764 SC065

17:15:18 wx upd end $$$

17:20:30 wx upd begin $$$

17:20:30 surround update begin **

17:20:30 <!DOCTYPE HTML PUBLIC "-//W3C//DTD HTML 4.0//EN" "HTTP://WWW.W3.ORG/TR/REC-HTML40/STRICT.DTD"><HTML><HEAD><TITLE>ADDS - METARS FORM RESULTS</TITLE><LINK REL="STYLESHEET" TYPE="TEXT/CSS" HREF="/ADDS/LAYOUT/OPS/MYSTYLE.CSS"></HEAD><BODY BGCOLOR="#FFFFFF"> <TABLE SUMMARY="THIS TABLE IS USED FOR FORMATTING PURPOSES ONLY" BORDER=0 CELLPADDING=3 CELLSPACING=0> <TR VALIGN="TOP"> <TD ALIGN="LEFT" COLSPAN="2"> <H2>AVIATION DIGITAL DATA SERVICE (ADDS)</H2> OUTPUT PRODUCED BY METARS FORM (1720 UTC&NBSP;19 NOVEMBER 2011)<BR> FOUND AT <A HREF="/ADDS/METARS/INDEX.PHP"> HTTP://AVIATIONWEATHER.GOV/ADDS/METARS/INDEX.PHP</A><BR> <BR> </TD> </TR> <TR VALIGN="TOP"> <TD ALIGN="LEFT" COLSPAN="2"><FONT FACE="MONOSPACE,COURIER">UUEE 191700Z 27006MPS 5000 -RA OVC007 02/02 Q0998 NOSIG RMK 75550337 25550337</FONT><BR><FONT FACE="MONOSPACE,COURIER">UUWW 191700Z 26006MPS 5000 -SHRASN BKN007 OVC016CB 02/01 Q0999 19511045 NOSIG</FONT><BR><FONT FACE="MONOSPACE,COURIE

17:20:30 wx generated for UUEE

17:20:31 KSC set to 37 based on wx

17:20:31 fs9 wx updated for UUEE

17:20:31 wx generated for UUWW

17:20:33 KSC set to 45 based on wx

17:20:33 fs9 wx updated for UUWW

17:20:33 wx generated for

17:20:33 surround update end **

17:20:33 URKK 191700Z 18003MPS 140V200 9999 BKN035 05/02 Q1023 NOSIG RMK QFE764 SC065

17:20:33 wx upd end $$$

17:25:45 wx upd begin $$$

17:25:45 surround update begin **

17:25:45 <!DOCTYPE HTML PUBLIC "-//W3C//DTD HTML 4.0//EN" "HTTP://WWW.W3.ORG/TR/REC-HTML40/STRICT.DTD"><HTML><HEAD><TITLE>ADDS - METARS FORM RESULTS</TITLE><LINK REL="STYLESHEET" TYPE="TEXT/CSS" HREF="/ADDS/LAYOUT/OPS/MYSTYLE.CSS"></HEAD><BODY BGCOLOR="#FFFFFF"> <TABLE SUMMARY="THIS TABLE IS USED FOR FORMATTING PURPOSES ONLY" BORDER=0 CELLPADDING=3 CELLSPACING=0> <TR VALIGN="TOP"> <TD ALIGN="LEFT" COLSPAN="2"> <H2>AVIATION DIGITAL DATA SERVICE (ADDS)</H2> OUTPUT PRODUCED BY METARS FORM (1725 UTC&NBSP;19 NOVEMBER 2011)<BR> FOUND AT <A HREF="/ADDS/METARS/INDEX.PHP"> HTTP://AVIATIONWEATHER.GOV/ADDS/METARS/INDEX.PHP</A><BR> <BR> </TD> </TR> <TR VALIGN="TOP"> <TD ALIGN="LEFT" COLSPAN="2"><FONT FACE="MONOSPACE,COURIER">UUEE 191700Z 27006MPS 5000 -RA OVC007 02/02 Q0998 NOSIG RMK 75550337 25550337</FONT><BR><FONT FACE="MONOSPACE,COURIER">UUWW 191700Z 26006MPS 5000 -SHRASN BKN007 OVC016CB 02/01 Q0999 19511045 NOSIG</FONT><BR><FONT FACE="MONOSPACE,COURIE

17:25:45 wx generated for UUEE

17:25:47 KSC set to 37 based on wx

17:25:47 fs9 wx updated for UUEE

17:25:47 wx generated for UUWW

17:25:48 KSC set to 45 based on wx

17:25:48 fs9 wx updated for UUWW

17:25:48 wx generated for

17:25:48 surround update end **

17:25:48 URKK 191700Z 18003MPS 140V200 9999 BKN035 05/02 Q1023 NOSIG RMK QFE764 SC065

17:25:48 wx upd end $$$

17:28:55 closest station found URSS (FS=URSS)

17:28:55 surround update begin **

17:28:56 <!DOCTYPE HTML PUBLIC "-//W3C//DTD HTML 4.0//EN" "HTTP://WWW.W3.ORG/TR/REC-HTML40/STRICT.DTD"><HTML><HEAD><TITLE>ADDS - METARS FORM RESULTS</TITLE><LINK REL="STYLESHEET" TYPE="TEXT/CSS" HREF="/ADDS/LAYOUT/OPS/MYSTYLE.CSS"></HEAD><BODY BGCOLOR="#FFFFFF"> <TABLE SUMMARY="THIS TABLE IS USED FOR FORMATTING PURPOSES ONLY" BORDER=0 CELLPADDING=3 CELLSPACING=0> <TR VALIGN="TOP"> <TD ALIGN="LEFT" COLSPAN="2"> <H2>AVIATION DIGITAL DATA SERVICE (ADDS)</H2> OUTPUT PRODUCED BY METARS FORM (1728 UTC&NBSP;19 NOVEMBER 2011)<BR> FOUND AT <A HREF="/ADDS/METARS/INDEX.PHP"> HTTP://AVIATIONWEATHER.GOV/ADDS/METARS/INDEX.PHP</A><BR> <BR> </TD> </TR> <TR VALIGN="TOP"> <TD ALIGN="LEFT" COLSPAN="2"><FONT FACE="MONOSPACE,COURIER">UUEE 191700Z 27006MPS 5000 -RA OVC007 02/02 Q0998 NOSIG RMK 75550337 25550337</FONT><BR><FONT FACE="MONOSPACE,COURIER">UUWW 191700Z 26006MPS 5000 -SHRASN BKN007 OVC016CB 02/01 Q0999 19511045 NOSIG</FONT><BR><FONT FACE="MONOSPACE,COURIE

17:28:56 wx generated for UUEE

17:28:57 KSC set to 37 based on wx

17:28:57 fs9 wx updated for UUEE

17:28:57 wx generated for UUWW

17:28:58 KSC set to 45 based on wx

17:28:58 fs9 wx updated for UUWW

17:28:58 wx generated for

17:28:58 surround update end **

17:28:59 URSS 191700Z 00000MPS 9999 OVC300 05/04 Q1023 NOSIG RMK QFE766 06CLRD70

17:29:00 simulated wind ok

17:29:00 wx generated for URSS

17:29:01 KSC set to 70 based on wx

17:29:01 fs9 wx updated for URSS

17:34:13 wx upd begin $$$

17:34:13 surround update begin **

17:34:13 <!DOCTYPE HTML PUBLIC "-//W3C//DTD HTML 4.0//EN" "HTTP://WWW.W3.ORG/TR/REC-HTML40/STRICT.DTD"><HTML><HEAD><TITLE>ADDS - METARS FORM RESULTS</TITLE><LINK REL="STYLESHEET" TYPE="TEXT/CSS" HREF="/ADDS/LAYOUT/OPS/MYSTYLE.CSS"></HEAD><BODY BGCOLOR="#FFFFFF"> <TABLE SUMMARY="THIS TABLE IS USED FOR FORMATTING PURPOSES ONLY" BORDER=0 CELLPADDING=3 CELLSPACING=0> <TR VALIGN="TOP"> <TD ALIGN="LEFT" COLSPAN="2"> <H2>AVIATION DIGITAL DATA SERVICE (ADDS)</H2> OUTPUT PRODUCED BY METARS FORM (1734 UTC&NBSP;19 NOVEMBER 2011)<BR> FOUND AT <A HREF="/ADDS/METARS/INDEX.PHP"> HTTP://AVIATIONWEATHER.GOV/ADDS/METARS/INDEX.PHP</A><BR> <BR> </TD> </TR> <TR VALIGN="TOP"> <TD ALIGN="LEFT" COLSPAN="2"><FONT FACE="MONOSPACE,COURIER">UUEE 191700Z 27006MPS 5000 -RA OVC007 02/02 Q0998 NOSIG RMK 75550337 25550337</FONT><BR><FONT FACE="MONOSPACE,COURIER">UUWW 191700Z 26006MPS 5000 -SHRASN BKN007 OVC016CB 02/01 Q0999 19511045 NOSIG</FONT><BR><FONT FACE="MONOSPACE,COURIE

17:34:13 wx generated for UUEE

17:34:14 KSC set to 37 based on wx

17:34:14 fs9 wx updated for UUEE

17:34:14 wx generated for UUWW

17:34:15 KSC set to 45 based on wx

17:34:15 fs9 wx updated for UUWW

17:34:15 wx generated for

17:34:16 surround update end **

17:34:16 URSS 191700Z 00000MPS 9999 OVC300 05/04 Q1023 NOSIG RMK QFE766 06CLRD70

17:34:16 wx upd end $$$

17:39:28 wx upd begin $$$

17:39:28 surround update begin **

17:39:28 <!DOCTYPE HTML PUBLIC "-//W3C//DTD HTML 4.0//EN" "HTTP://WWW.W3.ORG/TR/REC-HTML40/STRICT.DTD"><HTML><HEAD><TITLE>ADDS - METARS FORM RESULTS</TITLE><LINK REL="STYLESHEET" TYPE="TEXT/CSS" HREF="/ADDS/LAYOUT/OPS/MYSTYLE.CSS"></HEAD><BODY BGCOLOR="#FFFFFF"> <TABLE SUMMARY="THIS TABLE IS USED FOR FORMATTING PURPOSES ONLY" BORDER=0 CELLPADDING=3 CELLSPACING=0> <TR VALIGN="TOP"> <TD ALIGN="LEFT" COLSPAN="2"> <H2>AVIATION DIGITAL DATA SERVICE (ADDS)</H2> OUTPUT PRODUCED BY METARS FORM (1739 UTC&NBSP;19 NOVEMBER 2011)<BR> FOUND AT <A HREF="/ADDS/METARS/INDEX.PHP"> HTTP://AVIATIONWEATHER.GOV/ADDS/METARS/INDEX.PHP</A><BR> <BR> </TD> </TR> <TR VALIGN="TOP"> <TD ALIGN="LEFT" COLSPAN="2"><FONT FACE="MONOSPACE,COURIER">UUEE 191700Z 27006MPS 5000 -RA OVC007 02/02 Q0998 NOSIG RMK 75550337 25550337</FONT><BR><FONT FACE="MONOSPACE,COURIER">UUWW 191700Z 26006MPS 5000 -SHRASN BKN007 OVC016CB 02/01 Q0999 19511045 NOSIG</FONT><BR><FONT FACE="MONOSPACE,COURIE

17:39:28 wx generated for UUEE

17:39:29 KSC set to 37 based on wx

17:39:29 fs9 wx updated for UUEE

17:39:29 wx generated for UUWW

17:39:31 KSC set to 45 based on wx

17:39:31 fs9 wx updated for UUWW

17:39:31 wx generated for

17:39:31 surround update end **

17:39:31 URSS 191700Z 00000MPS 9999 OVC300 05/04 Q1023 NOSIG RMK QFE766 06CLRD70

17:39:31 wx upd end $$$

17:44:43 wx upd begin $$$

17:44:43 surround update begin **

17:44:43 <!DOCTYPE HTML PUBLIC "-//W3C//DTD HTML 4.0//EN" "HTTP://WWW.W3.ORG/TR/REC-HTML40/STRICT.DTD"><HTML><HEAD><TITLE>ADDS - METARS FORM RESULTS</TITLE><LINK REL="STYLESHEET" TYPE="TEXT/CSS" HREF="/ADDS/LAYOUT/OPS/MYSTYLE.CSS"></HEAD><BODY BGCOLOR="#FFFFFF"> <TABLE SUMMARY="THIS TABLE IS USED FOR FORMATTING PURPOSES ONLY" BORDER=0 CELLPADDING=3 CELLSPACING=0> <TR VALIGN="TOP"> <TD ALIGN="LEFT" COLSPAN="2"> <H2>AVIATION DIGITAL DATA SERVICE (ADDS)</H2> OUTPUT PRODUCED BY METARS FORM (1744 UTC&NBSP;19 NOVEMBER 2011)<BR> FOUND AT <A HREF="/ADDS/METARS/INDEX.PHP"> HTTP://AVIATIONWEATHER.GOV/ADDS/METARS/INDEX.PHP</A><BR> <BR> </TD> </TR> <TR VALIGN="TOP"> <TD ALIGN="LEFT" COLSPAN="2"><FONT FACE="MONOSPACE,COURIER">UUEE 191730Z 29007MPS 5000 -SHRA BKN007CB 02/02 Q0998 NOSIG RMK 29007G09MPS 75550337 25550337</FONT><BR><FONT FACE="MONOSPACE,COURIER">UUWW 191730Z 26006MPS 6000 -SHRA BKN008 OVC020CB 02/01 Q0999 19511045 NOSIG</FONT><BR><FONT FACE="

17:44:43 wx generated for UUEE

17:44:45 KSC set to 37 based on wx

17:44:45 fs9 wx updated for UUEE

17:44:45 wx generated for UUWW

17:44:46 KSC set to 45 based on wx

17:44:46 fs9 wx updated for UUWW

17:44:46 wx generated for

17:44:46 surround update end **

17:44:46 URSS 191730Z 00000MPS 9999 OVC300 05/03 Q1023 NOSIG RMK QFE766 06CLRD70

17:44:46 wx generated for URSS

17:44:47 KSC set to 70 based on wx

17:44:47 fs9 wx updated for URSS

17:44:47 wx upd end $$$

17:49:59 wx upd begin $$$

17:49:59 surround update begin **

17:50:00 <!DOCTYPE HTML PUBLIC "-//W3C//DTD HTML 4.0//EN" "HTTP://WWW.W3.ORG/TR/REC-HTML40/STRICT.DTD"><HTML><HEAD><TITLE>ADDS - METARS FORM RESULTS</TITLE><LINK REL="STYLESHEET" TYPE="TEXT/CSS" HREF="/ADDS/LAYOUT/OPS/MYSTYLE.CSS"></HEAD><BODY BGCOLOR="#FFFFFF"> <TABLE SUMMARY="THIS TABLE IS USED FOR FORMATTING PURPOSES ONLY" BORDER=0 CELLPADDING=3 CELLSPACING=0> <TR VALIGN="TOP"> <TD ALIGN="LEFT" COLSPAN="2"> <H2>AVIATION DIGITAL DATA SERVICE (ADDS)</H2> OUTPUT PRODUCED BY METARS FORM (1749 UTC&NBSP;19 NOVEMBER 2011)<BR> FOUND AT <A HREF="/ADDS/METARS/INDEX.PHP"> HTTP://AVIATIONWEATHER.GOV/ADDS/METARS/INDEX.PHP</A><BR> <BR> </TD> </TR> <TR VALIGN="TOP"> <TD ALIGN="LEFT" COLSPAN="2"><FONT FACE="MONOSPACE,COURIER">UUEE 191730Z 29007MPS 5000 -SHRA BKN007CB 02/02 Q0998 NOSIG RMK 29007G09MPS 75550337 25550337</FONT><BR><FONT FACE="MONOSPACE,COURIER">UUWW 191730Z 26006MPS 6000 -SHRA BKN008 OVC020CB 02/01 Q0999 19511045 NOSIG</FONT><BR><FONT FACE="

17:50:00 wx generated for UUEE

17:50:01 KSC set to 37 based on wx

17:50:01 fs9 wx updated for UUEE

17:50:01 wx generated for UUWW

17:50:02 KSC set to 45 based on wx

17:50:02 fs9 wx updated for UUWW

17:50:02 wx generated for

17:50:02 surround update end **

17:50:03 URSS 191730Z 00000MPS 9999 OVC300 05/03 Q1023 NOSIG RMK QFE766 06CLRD70

17:50:03 wx upd end $$$

17:55:14 wx upd begin $$$

17:55:14 surround update begin **

17:55:15 <!DOCTYPE HTML PUBLIC "-//W3C//DTD HTML 4.0//EN" "HTTP://WWW.W3.ORG/TR/REC-HTML40/STRICT.DTD"><HTML><HEAD><TITLE>ADDS - METARS FORM RESULTS</TITLE><LINK REL="STYLESHEET" TYPE="TEXT/CSS" HREF="/ADDS/LAYOUT/OPS/MYSTYLE.CSS"></HEAD><BODY BGCOLOR="#FFFFFF"> <TABLE SUMMARY="THIS TABLE IS USED FOR FORMATTING PURPOSES ONLY" BORDER=0 CELLPADDING=3 CELLSPACING=0> <TR VALIGN="TOP"> <TD ALIGN="LEFT" COLSPAN="2"> <H2>AVIATION DIGITAL DATA SERVICE (ADDS)</H2> OUTPUT PRODUCED BY METARS FORM (1755 UTC&NBSP;19 NOVEMBER 2011)<BR> FOUND AT <A HREF="/ADDS/METARS/INDEX.PHP"> HTTP://AVIATIONWEATHER.GOV/ADDS/METARS/INDEX.PHP</A><BR> <BR> </TD> </TR> <TR VALIGN="TOP"> <TD ALIGN="LEFT" COLSPAN="2"><FONT FACE="MONOSPACE,COURIER">UUEE 191730Z 29007MPS 5000 -SHRA BKN007CB 02/02 Q0998 NOSIG RMK 29007G09MPS 75550337 25550337</FONT><BR><FONT FACE="MONOSPACE,COURIER">UUWW 191730Z 26006MPS 6000 -SHRA BKN008 OVC020CB 02/01 Q0999 19511045 NOSIG</FONT><BR><FONT FACE="

17:55:15 wx generated for UUEE

17:55:16 KSC set to 37 based on wx

17:55:16 fs9 wx updated for UUEE

17:55:16 wx generated for UUWW

17:55:17 KSC set to 45 based on wx

17:55:17 fs9 wx updated for UUWW

17:55:17 wx generated for

17:55:17 surround update end **

17:55:18 URSS 191730Z 00000MPS 9999 OVC300 05/03 Q1023 NOSIG RMK QFE766 06CLRD70

17:55:18 wx upd end $$$

18:00:30 wx upd begin $$$

18:00:30 surround update begin **

18:00:30 <!DOCTYPE HTML PUBLIC "-//W3C//DTD HTML 4.0//EN" "HTTP://WWW.W3.ORG/TR/REC-HTML40/STRICT.DTD"><HTML><HEAD><TITLE>ADDS - METARS FORM RESULTS</TITLE><LINK REL="STYLESHEET" TYPE="TEXT/CSS" HREF="/ADDS/LAYOUT/OPS/MYSTYLE.CSS"></HEAD><BODY BGCOLOR="#FFFFFF"> <TABLE SUMMARY="THIS TABLE IS USED FOR FORMATTING PURPOSES ONLY" BORDER=0 CELLPADDING=3 CELLSPACING=0> <TR VALIGN="TOP"> <TD ALIGN="LEFT" COLSPAN="2"> <H2>AVIATION DIGITAL DATA SERVICE (ADDS)</H2> OUTPUT PRODUCED BY METARS FORM (1800 UTC&NBSP;19 NOVEMBER 2011)<BR> FOUND AT <A HREF="/ADDS/METARS/INDEX.PHP"> HTTP://AVIATIONWEATHER.GOV/ADDS/METARS/INDEX.PHP</A><BR> <BR> </TD> </TR> <TR VALIGN="TOP"> <TD ALIGN="LEFT" COLSPAN="2"><FONT FACE="MONOSPACE,COURIER">UUEE 191730Z 29007MPS 5000 -SHRA BKN007CB 02/02 Q0998 NOSIG RMK 29007G09MPS 75550337 25550337</FONT><BR><FONT FACE="MONOSPACE,COURIER">UUWW 191730Z 26006MPS 6000 -SHRA BKN008 OVC020CB 02/01 Q0999 19511045 NOSIG</FONT><BR><FONT FACE="

18:00:30 wx generated for UUEE

18:00:32 KSC set to 37 based on wx

18:00:32 fs9 wx updated for UUEE

18:00:32 wx generated for UUWW

18:00:33 KSC set to 45 based on wx

18:00:33 fs9 wx updated for UUWW

18:00:33 wx generated for

18:00:33 surround update end **

18:00:33 URSS 191730Z 00000MPS 9999 OVC300 05/03 Q1023 NOSIG RMK QFE766 06CLRD70

18:00:33 wx upd end $$$

18:05:45 wx upd begin $$$

18:05:45 surround update begin **

18:05:45 <!DOCTYPE HTML PUBLIC "-//W3C//DTD HTML 4.0//EN" "HTTP://WWW.W3.ORG/TR/REC-HTML40/STRICT.DTD"><HTML><HEAD><TITLE>ADDS - METARS FORM RESULTS</TITLE><LINK REL="STYLESHEET" TYPE="TEXT/CSS" HREF="/ADDS/LAYOUT/OPS/MYSTYLE.CSS"></HEAD><BODY BGCOLOR="#FFFFFF"> <TABLE SUMMARY="THIS TABLE IS USED FOR FORMATTING PURPOSES ONLY" BORDER=0 CELLPADDING=3 CELLSPACING=0> <TR VALIGN="TOP"> <TD ALIGN="LEFT" COLSPAN="2"> <H2>AVIATION DIGITAL DATA SERVICE (ADDS)</H2> OUTPUT PRODUCED BY METARS FORM (1805 UTC&NBSP;19 NOVEMBER 2011)<BR> FOUND AT <A HREF="/ADDS/METARS/INDEX.PHP"> HTTP://AVIATIONWEATHER.GOV/ADDS/METARS/INDEX.PHP</A><BR> <BR> </TD> </TR> <TR VALIGN="TOP"> <TD ALIGN="LEFT" COLSPAN="2"><FONT FACE="MONOSPACE,COURIER">UUEE 191730Z 29007MPS 5000 -SHRA BKN007CB 02/02 Q0998 NOSIG RMK 29007G09MPS 75550337 25550337</FONT><BR><FONT FACE="MONOSPACE,COURIER">UUWW 191730Z 26006MPS 6000 -SHRA BKN008 OVC020CB 02/01 Q0999 19511045 NOSIG</FONT><BR><FONT FACE="

18:05:45 wx generated for UUEE

18:05:47 KSC set to 37 based on wx

18:05:47 fs9 wx updated for UUEE

18:05:47 wx generated for UUWW

18:05:48 KSC set to 45 based on wx

18:05:48 fs9 wx updated for UUWW

18:05:48 wx generated for

18:05:48 surround update end **

18:05:48 URSS 191730Z 00000MPS 9999 OVC300 05/03 Q1023 NOSIG RMK QFE766 06CLRD70

18:05:48 wx upd end $$$

18:11:00 wx upd begin $$$

18:11:00 surround update begin **

18:11:01 <!DOCTYPE HTML PUBLIC "-//W3C//DTD HTML 4.0//EN" "HTTP://WWW.W3.ORG/TR/REC-HTML40/STRICT.DTD"><HTML><HEAD><TITLE>ADDS - METARS FORM RESULTS</TITLE><LINK REL="STYLESHEET" TYPE="TEXT/CSS" HREF="/ADDS/LAYOUT/OPS/MYSTYLE.CSS"></HEAD><BODY BGCOLOR="#FFFFFF"> <TABLE SUMMARY="THIS TABLE IS USED FOR FORMATTING PURPOSES ONLY" BORDER=0 CELLPADDING=3 CELLSPACING=0> <TR VALIGN="TOP"> <TD ALIGN="LEFT" COLSPAN="2"> <H2>AVIATION DIGITAL DATA SERVICE (ADDS)</H2> OUTPUT PRODUCED BY METARS FORM (1810 UTC&NBSP;19 NOVEMBER 2011)<BR> FOUND AT <A HREF="/ADDS/METARS/INDEX.PHP"> HTTP://AVIATIONWEATHER.GOV/ADDS/METARS/INDEX.PHP</A><BR> <BR> </TD> </TR> <TR VALIGN="TOP"> <TD ALIGN="LEFT" COLSPAN="2"><FONT FACE="MONOSPACE,COURIER">UUEE 191800Z 30006MPS 5000 -SHRA BKN009CB 02/02 Q0999 NOSIG RMK 29006G07MPS 75550337 25550337</FONT><BR><FONT FACE="MONOSPACE,COURIER">UUWW 191800Z 28005MPS 6000 -SHRA BKN008 OVC023CB 02/01 Q0999 19511045 NOSIG</FONT><BR><FONT FACE="

18:11:01 wx generated for UUEE

18:11:02 KSC set to 37 based on wx

18:11:02 fs9 wx updated for UUEE

18:11:02 wx generated for UUWW

18:11:03 KSC set to 45 based on wx

18:11:03 fs9 wx updated for UUWW

18:11:03 wx generated for

18:11:03 surround update end **

18:11:04 URSS 191730Z 00000MPS 9999 OVC300 05/03 Q1023 NOSIG RMK QFE766 06CLRD70

18:11:04 wx upd end $$$

18:16:15 wx upd begin $$$

18:16:16 surround update begin **

18:16:16 <!DOCTYPE HTML PUBLIC "-//W3C//DTD HTML 4.0//EN" "HTTP://WWW.W3.ORG/TR/REC-HTML40/STRICT.DTD"><HTML><HEAD><TITLE>ADDS - METARS FORM RESULTS</TITLE><LINK REL="STYLESHEET" TYPE="TEXT/CSS" HREF="/ADDS/LAYOUT/OPS/MYSTYLE.CSS"></HEAD><BODY BGCOLOR="#FFFFFF"> <TABLE SUMMARY="THIS TABLE IS USED FOR FORMATTING PURPOSES ONLY" BORDER=0 CELLPADDING=3 CELLSPACING=0> <TR VALIGN="TOP"> <TD ALIGN="LEFT" COLSPAN="2"> <H2>AVIATION DIGITAL DATA SERVICE (ADDS)</H2> OUTPUT PRODUCED BY METARS FORM (1816 UTC&NBSP;19 NOVEMBER 2011)<BR> FOUND AT <A HREF="/ADDS/METARS/INDEX.PHP"> HTTP://AVIATIONWEATHER.GOV/ADDS/METARS/INDEX.PHP</A><BR> <BR> </TD> </TR> <TR VALIGN="TOP"> <TD ALIGN="LEFT" COLSPAN="2"><FONT FACE="MONOSPACE,COURIER">UUEE 191800Z 30006MPS 5000 -SHRA BKN009CB 02/02 Q0999 NOSIG RMK 29006G07MPS 75550337 25550337</FONT><BR><FONT FACE="MONOSPACE,COURIER">UUWW 191800Z 28005MPS 6000 -SHRA BKN008 OVC023CB 02/01 Q0999 19511045 NOSIG</FONT><BR><FONT FACE="

18:16:16 wx generated for UUEE

18:16:17 KSC set to 37 based on wx

18:16:17 fs9 wx updated for UUEE

18:16:17 wx generated for UUWW

18:16:18 KSC set to 45 based on wx

18:16:18 fs9 wx updated for UUWW

18:16:18 wx generated for

18:16:19 surround update end **

18:16:19 URSS 191800Z 03001MPS 9999 BKN300 05/03 Q1023 NOSIG RMK QFE766 06CLRD70

18:16:19 wx generated for URSS

18:16:20 KSC set to 70 based on wx

18:16:20 fs9 wx updated for URSS

18:16:20 wx upd end $$$

18:21:32 wx upd begin $$$

18:21:32 surround update begin **

18:21:33 <!DOCTYPE HTML PUBLIC "-//W3C//DTD HTML 4.0//EN" "HTTP://WWW.W3.ORG/TR/REC-HTML40/STRICT.DTD"><HTML><HEAD><TITLE>ADDS - METARS FORM RESULTS</TITLE><LINK REL="STYLESHEET" TYPE="TEXT/CSS" HREF="/ADDS/LAYOUT/OPS/MYSTYLE.CSS"></HEAD><BODY BGCOLOR="#FFFFFF"> <TABLE SUMMARY="THIS TABLE IS USED FOR FORMATTING PURPOSES ONLY" BORDER=0 CELLPADDING=3 CELLSPACING=0> <TR VALIGN="TOP"> <TD ALIGN="LEFT" COLSPAN="2"> <H2>AVIATION DIGITAL DATA SERVICE (ADDS)</H2> OUTPUT PRODUCED BY METARS FORM (1821 UTC&NBSP;19 NOVEMBER 2011)<BR> FOUND AT <A HREF="/ADDS/METARS/INDEX.PHP"> HTTP://AVIATIONWEATHER.GOV/ADDS/METARS/INDEX.PHP</A><BR> <BR> </TD> </TR> <TR VALIGN="TOP"> <TD ALIGN="LEFT" COLSPAN="2"><FONT FACE="MONOSPACE,COURIER">UUEE 191800Z 30006MPS 5000 -SHRA BKN009CB 02/02 Q0999 NOSIG RMK 29006G07MPS 75550337 25550337</FONT><BR><FONT FACE="MONOSPACE,COURIER">UUWW 191800Z 28005MPS 6000 -SHRA BKN008 OVC023CB 02/01 Q0999 19511045 NOSIG</FONT><BR><FONT FACE="

18:21:33 wx generated for UUEE

18:21:34 KSC set to 37 based on wx

18:21:34 fs9 wx updated for UUEE

18:21:34 wx generated for UUWW

18:21:35 KSC set to 45 based on wx

18:21:35 fs9 wx updated for UUWW

18:21:35 wx generated for

18:21:35 surround update end **

18:21:35 URSS 191800Z 03001MPS 9999 BKN300 05/03 Q1023 NOSIG RMK QFE766 06CLRD70

18:21:35 wx upd end $$$

18:26:47 wx upd begin $$$

18:26:47 surround update begin **

18:26:48 <!DOCTYPE HTML PUBLIC "-//W3C//DTD HTML 4.0//EN" "HTTP://WWW.W3.ORG/TR/REC-HTML40/STRICT.DTD"><HTML><HEAD><TITLE>ADDS - METARS FORM RESULTS</TITLE><LINK REL="STYLESHEET" TYPE="TEXT/CSS" HREF="/ADDS/LAYOUT/OPS/MYSTYLE.CSS"></HEAD><BODY BGCOLOR="#FFFFFF"> <TABLE SUMMARY="THIS TABLE IS USED FOR FORMATTING PURPOSES ONLY" BORDER=0 CELLPADDING=3 CELLSPACING=0> <TR VALIGN="TOP"> <TD ALIGN="LEFT" COLSPAN="2"> <H2>AVIATION DIGITAL DATA SERVICE (ADDS)</H2> OUTPUT PRODUCED BY METARS FORM (1826 UTC&NBSP;19 NOVEMBER 2011)<BR> FOUND AT <A HREF="/ADDS/METARS/INDEX.PHP"> HTTP://AVIATIONWEATHER.GOV/ADDS/METARS/INDEX.PHP</A><BR> <BR> </TD> </TR> <TR VALIGN="TOP"> <TD ALIGN="LEFT" COLSPAN="2"><FONT FACE="MONOSPACE,COURIER">UUEE 191800Z 30006MPS 5000 -SHRA BKN009CB 02/02 Q0999 NOSIG RMK 29006G07MPS 75550337 25550337</FONT><BR><FONT FACE="MONOSPACE,COURIER">UUWW 191800Z 28005MPS 6000 -SHRA BKN008 OVC023CB 02/01 Q0999 19511045 NOSIG</FONT><BR><FONT FACE="

18:26:48 wx generated for UUEE

18:26:49 KSC set to 37 based on wx

18:26:49 fs9 wx updated for UUEE

18:26:49 wx generated for UUWW

18:26:50 KSC set to 45 based on wx

18:26:50 fs9 wx updated for UUWW

18:26:50 wx generated for

18:26:50 surround update end **

18:26:51 URSS 191800Z 03001MPS 9999 BKN300 05/03 Q1023 NOSIG RMK QFE766 06CLRD70

18:26:51 wx upd end $$$

18:32:02 wx upd begin $$$

18:32:03 surround update begin **

18:32:03 <!DOCTYPE HTML PUBLIC "-//W3C//DTD HTML 4.0//EN" "HTTP://WWW.W3.ORG/TR/REC-HTML40/STRICT.DTD"><HTML><HEAD><TITLE>ADDS - METARS FORM RESULTS</TITLE><LINK REL="STYLESHEET" TYPE="TEXT/CSS" HREF="/ADDS/LAYOUT/OPS/MYSTYLE.CSS"></HEAD><BODY BGCOLOR="#FFFFFF"> <TABLE SUMMARY="THIS TABLE IS USED FOR FORMATTING PURPOSES ONLY" BORDER=0 CELLPADDING=3 CELLSPACING=0> <TR VALIGN="TOP"> <TD ALIGN="LEFT" COLSPAN="2"> <H2>AVIATION DIGITAL DATA SERVICE (ADDS)</H2> OUTPUT PRODUCED BY METARS FORM (1832 UTC&NBSP;19 NOVEMBER 2011)<BR> FOUND AT <A HREF="/ADDS/METARS/INDEX.PHP"> HTTP://AVIATIONWEATHER.GOV/ADDS/METARS/INDEX.PHP</A><BR> <BR> </TD> </TR> <TR VALIGN="TOP"> <TD ALIGN="LEFT" COLSPAN="2"><FONT FACE="MONOSPACE,COURIER">UUEE 191800Z 30006MPS 5000 -SHRA BKN009CB 02/02 Q0999 NOSIG RMK 29006G07MPS 75550337 25550337</FONT><BR><FONT FACE="MONOSPACE,COURIER">UUWW 191800Z 28005MPS 6000 -SHRA BKN008 OVC023CB 02/01 Q0999 19511045 NOSIG</FONT><BR><FONT FACE="

18:32:03 wx generated for UUEE

18:32:04 KSC set to 37 based on wx

18:32:04 fs9 wx updated for UUEE

18:32:04 wx generated for UUWW

18:32:05 KSC set to 45 based on wx

18:32:05 fs9 wx updated for UUWW

18:32:05 wx generated for

18:32:06 surround update end **

18:32:06 URSS 191800Z 03001MPS 9999 BKN300 05/03 Q1023 NOSIG RMK QFE766 06CLRD70

18:32:06 wx upd end $$$

18:37:18 wx upd begin $$$

18:37:18 surround update begin **

18:37:48 <!DOCTYPE HTML PUBLIC "-//W3C//DTD HTML 4.0//EN" "HTTP://WWW.W3.ORG/TR/REC-HTML40/STRICT.DTD"><HTML><HEAD><TITLE>ADDS - METARS FORM RESULTS</TITLE><LINK REL="STYLESHEET" TYPE="TEXT/CSS" HREF="/ADDS/LAYOUT/OPS/MYSTYLE.CSS"></HEAD><BODY BGCOLOR="#FFFFFF"> <TABLE SUMMARY="THIS TABLE IS USED FOR FORMATTING PURPOSES ONLY" BORDER=0 CELLPADDING=3 CELLSPACING=0> <TR VALIGN="TOP"> <TD ALIGN="LEFT" COLSPAN="2"> <H2>AVIATION DIGITAL DATA SERVICE (ADDS)</H2> OUTPUT PRODUCED BY METARS FORM (1837 UTC&NBSP;19 NOVEMBER 2011)<BR> FOUND AT <A HREF="/ADDS/METARS/INDEX.PHP"> HTTP://AVIATIONWEATHER.GOV/ADDS/METARS/INDEX.PHP</A><BR> <BR> </TD> </TR> <TR VALIGN="TOP"> <TD ALIGN="LEFT" COLSPAN="2"><FONT FACE="MONOSPACE,COURIER">UUEE 191800Z 30006MPS 5000 -SHRA BKN009CB 02/02 Q0999 NOSIG RMK 29006G07MPS 75550337 25550337</FONT><BR><FONT FACE="MONOSPACE,COURIER">UUWW 191800Z 28005MPS 6000 -SHRA BKN008 OVC023CB 02/01 Q0999 19511045 NOSIG</FONT><BR><FONT FACE="

18:37:48 wx generated for UUEE

18:37:49 KSC set to 37 based on wx

18:37:49 fs9 wx updated for UUEE

18:37:49 wx generated for UUWW

18:37:51 KSC set to 45 based on wx

18:37:51 fs9 wx updated for UUWW

18:37:51 wx generated for

18:37:51 surround update end **

18:37:51 URSS 191800Z 03001MPS 9999 BKN300 05/03 Q1023 NOSIG RMK QFE766 06CLRD70

18:37:51 wx upd end $$$

18:43:03 wx upd begin $$$

18:43:03 surround update begin **

18:43:03 <!DOCTYPE HTML PUBLIC "-//W3C//DTD HTML 4.0//EN" "HTTP://WWW.W3.ORG/TR/REC-HTML40/STRICT.DTD"><HTML><HEAD><TITLE>ADDS - METARS FORM RESULTS</TITLE><LINK REL="STYLESHEET" TYPE="TEXT/CSS" HREF="/ADDS/LAYOUT/OPS/MYSTYLE.CSS"></HEAD><BODY BGCOLOR="#FFFFFF"> <TABLE SUMMARY="THIS TABLE IS USED FOR FORMATTING PURPOSES ONLY" BORDER=0 CELLPADDING=3 CELLSPACING=0> <TR VALIGN="TOP"> <TD ALIGN="LEFT" COLSPAN="2"> <H2>AVIATION DIGITAL DATA SERVICE (ADDS)</H2> OUTPUT PRODUCED BY METARS FORM (1843 UTC&NBSP;19 NOVEMBER 2011)<BR> FOUND AT <A HREF="/ADDS/METARS/INDEX.PHP"> HTTP://AVIATIONWEATHER.GOV/ADDS/METARS/INDEX.PHP</A><BR> <BR> </TD> </TR> <TR VALIGN="TOP"> <TD ALIGN="LEFT" COLSPAN="2"><FONT FACE="MONOSPACE,COURIER">UUEE 191830Z 30009MPS 5000 -RA OVC008 02/02 Q0999 NOSIG RMK 30009G11MPS 75550337 25550337</FONT><BR><FONT FACE="MONOSPACE,COURIER">UUWW 191830Z 29005MPS 9999 -RA BKN010 OVC023 02/01 Q1000 19511045 NOSIG</FONT><BR><FONT FACE="MONOSPAC

18:43:03 wx generated for UUEE

18:43:05 KSC set to 37 based on wx

18:43:05 fs9 wx updated for UUEE

18:43:05 wx generated for UUWW

18:43:06 KSC set to 45 based on wx

18:43:06 fs9 wx updated for UUWW

18:43:06 wx generated for

18:43:06 surround update end **

18:43:06 URSS 191830Z 35001MPS 9999 BKN300 05/03 Q1023 NOSIG RMK QFE766 06CLRD70

18:43:06 wx generated for URSS

18:43:08 KSC set to 70 based on wx

18:43:08 fs9 wx updated for URSS

18:43:08 wx upd end $$$

18:48:20 wx upd begin $$$

18:48:20 surround update begin **

18:48:20 <!DOCTYPE HTML PUBLIC "-//W3C//DTD HTML 4.0//EN" "HTTP://WWW.W3.ORG/TR/REC-HTML40/STRICT.DTD"><HTML><HEAD><TITLE>ADDS - METARS FORM RESULTS</TITLE><LINK REL="STYLESHEET" TYPE="TEXT/CSS" HREF="/ADDS/LAYOUT/OPS/MYSTYLE.CSS"></HEAD><BODY BGCOLOR="#FFFFFF"> <TABLE SUMMARY="THIS TABLE IS USED FOR FORMATTING PURPOSES ONLY" BORDER=0 CELLPADDING=3 CELLSPACING=0> <TR VALIGN="TOP"> <TD ALIGN="LEFT" COLSPAN="2"> <H2>AVIATION DIGITAL DATA SERVICE (ADDS)</H2> OUTPUT PRODUCED BY METARS FORM (1848 UTC&NBSP;19 NOVEMBER 2011)<BR> FOUND AT <A HREF="/ADDS/METARS/INDEX.PHP"> HTTP://AVIATIONWEATHER.GOV/ADDS/METARS/INDEX.PHP</A><BR> <BR> </TD> </TR> <TR VALIGN="TOP"> <TD ALIGN="LEFT" COLSPAN="2"><FONT FACE="MONOSPACE,COURIER">UUEE 191830Z 30009MPS 5000 -RA OVC008 02/02 Q0999 NOSIG RMK 30009G11MPS 75550337 25550337</FONT><BR><FONT FACE="MONOSPACE,COURIER">UUWW 191830Z 29005MPS 9999 -RA BKN010 OVC023 02/01 Q1000 19511045 NOSIG</FONT><BR><FONT FACE="MONOSPAC

18:48:20 wx generated for UUEE

18:48:21 KSC set to 37 based on wx

18:48:21 fs9 wx updated for UUEE

18:48:21 wx generated for UUWW

18:48:23 KSC set to 45 based on wx

18:48:23 fs9 wx updated for UUWW

18:48:23 wx generated for

18:48:23 surround update end **

18:48:23 URSS 191830Z 35001MPS 9999 BKN300 05/03 Q1023 NOSIG RMK QFE766 06CLRD70

18:48:23 wx upd end $$$

18:53:35 wx upd begin $$$

18:53:35 surround update begin **

18:53:35 <!DOCTYPE HTML PUBLIC "-//W3C//DTD HTML 4.0//EN" "HTTP://WWW.W3.ORG/TR/REC-HTML40/STRICT.DTD"><HTML><HEAD><TITLE>ADDS - METARS FORM RESULTS</TITLE><LINK REL="STYLESHEET" TYPE="TEXT/CSS" HREF="/ADDS/LAYOUT/OPS/MYSTYLE.CSS"></HEAD><BODY BGCOLOR="#FFFFFF"> <TABLE SUMMARY="THIS TABLE IS USED FOR FORMATTING PURPOSES ONLY" BORDER=0 CELLPADDING=3 CELLSPACING=0> <TR VALIGN="TOP"> <TD ALIGN="LEFT" COLSPAN="2"> <H2>AVIATION DIGITAL DATA SERVICE (ADDS)</H2> OUTPUT PRODUCED BY METARS FORM (1853 UTC&NBSP;19 NOVEMBER 2011)<BR> FOUND AT <A HREF="/ADDS/METARS/INDEX.PHP"> HTTP://AVIATIONWEATHER.GOV/ADDS/METARS/INDEX.PHP</A><BR> <BR> </TD> </TR> <TR VALIGN="TOP"> <TD ALIGN="LEFT" COLSPAN="2"><FONT FACE="MONOSPACE,COURIER">UUEE 191830Z 30009MPS 5000 -RA OVC008 02/02 Q0999 NOSIG RMK 30009G11MPS 75550337 25550337</FONT><BR><FONT FACE="MONOSPACE,COURIER">UUWW 191830Z 29005MPS 9999 -RA BKN010 OVC023 02/01 Q1000 19511045 NOSIG</FONT><BR><FONT FACE="MONOSPAC

18:53:35 wx generated for UUEE

18:53:36 KSC set to 37 based on wx

18:53:36 fs9 wx updated for UUEE

18:53:36 wx generated for UUWW

18:53:38 KSC set to 45 based on wx

18:53:38 fs9 wx updated for UUWW

18:53:38 wx generated for

18:53:38 surround update end **

18:53:38 URSS 191830Z 35001MPS 9999 BKN300 05/03 Q1023 NOSIG RMK QFE766 06CLRD70

18:53:38 wx upd end $$$

18:58:50 wx upd begin $$$

18:58:50 surround update begin **

18:58:50 <!DOCTYPE HTML PUBLIC "-//W3C//DTD HTML 4.0//EN" "HTTP://WWW.W3.ORG/TR/REC-HTML40/STRICT.DTD"><HTML><HEAD><TITLE>ADDS - METARS FORM RESULTS</TITLE><LINK REL="STYLESHEET" TYPE="TEXT/CSS" HREF="/ADDS/LAYOUT/OPS/MYSTYLE.CSS"></HEAD><BODY BGCOLOR="#FFFFFF"> <TABLE SUMMARY="THIS TABLE IS USED FOR FORMATTING PURPOSES ONLY" BORDER=0 CELLPADDING=3 CELLSPACING=0> <TR VALIGN="TOP"> <TD ALIGN="LEFT" COLSPAN="2"> <H2>AVIATION DIGITAL DATA SERVICE (ADDS)</H2> OUTPUT PRODUCED BY METARS FORM (1858 UTC&NBSP;19 NOVEMBER 2011)<BR> FOUND AT <A HREF="/ADDS/METARS/INDEX.PHP"> HTTP://AVIATIONWEATHER.GOV/ADDS/METARS/INDEX.PHP</A><BR> <BR> </TD> </TR> <TR VALIGN="TOP"> <TD ALIGN="LEFT" COLSPAN="2"><FONT FACE="MONOSPACE,COURIER">UUEE 191830Z 30009MPS 5000 -RA OVC008 02/02 Q0999 NOSIG RMK 30009G11MPS 75550337 25550337</FONT><BR><FONT FACE="MONOSPACE,COURIER">UUWW 191830Z 29005MPS 9999 -RA BKN010 OVC023 02/01 Q1000 19511045 NOSIG</FONT><BR><FONT FACE="MONOSPAC

18:58:50 wx generated for UUEE

18:58:52 KSC set to 37 based on wx

18:58:52 fs9 wx updated for UUEE

18:58:52 wx generated for UUWW

18:58:53 KSC set to 45 based on wx

18:58:53 fs9 wx updated for UUWW

18:58:53 wx generated for

18:58:53 surround update end **

18:58:53 URSS 191830Z 35001MPS 9999 BKN300 05/03 Q1023 NOSIG RMK QFE766 06CLRD70

18:58:53 wx upd end $$$

19:04:06 wx upd begin $$$

19:04:06 surround update begin **

19:04:06 <!DOCTYPE HTML PUBLIC "-//W3C//DTD HTML 4.0//EN" "HTTP://WWW.W3.ORG/TR/REC-HTML40/STRICT.DTD"><HTML><HEAD><TITLE>ADDS - METARS FORM RESULTS</TITLE><LINK REL="STYLESHEET" TYPE="TEXT/CSS" HREF="/ADDS/LAYOUT/OPS/MYSTYLE.CSS"></HEAD><BODY BGCOLOR="#FFFFFF"> <TABLE SUMMARY="THIS TABLE IS USED FOR FORMATTING PURPOSES ONLY" BORDER=0 CELLPADDING=3 CELLSPACING=0> <TR VALIGN="TOP"> <TD ALIGN="LEFT" COLSPAN="2"> <H2>AVIATION DIGITAL DATA SERVICE (ADDS)</H2> OUTPUT PRODUCED BY METARS FORM (1904 UTC&NBSP;19 NOVEMBER 2011)<BR> FOUND AT <A HREF="/ADDS/METARS/INDEX.PHP"> HTTP://AVIATIONWEATHER.GOV/ADDS/METARS/INDEX.PHP</A><BR> <BR> </TD> </TR> <TR VALIGN="TOP"> <TD ALIGN="LEFT" COLSPAN="2"><FONT FACE="MONOSPACE,COURIER">UUEE 191830Z 30009MPS 5000 -RA OVC008 02/02 Q0999 NOSIG RMK 30009G11MPS 75550337 25550337</FONT><BR><FONT FACE="MONOSPACE,COURIER">UUWW 191830Z 29005MPS 9999 -RA BKN010 OVC023 02/01 Q1000 19511045 NOSIG</FONT><BR><FONT FACE="MONOSPAC

19:04:06 wx generated for UUEE

19:04:08 KSC set to 37 based on wx

19:04:08 fs9 wx updated for UUEE

19:04:08 wx generated for UUWW

19:04:09 KSC set to 45 based on wx

19:04:09 fs9 wx updated for UUWW

19:04:09 wx generated for

19:04:09 surround update end **

19:04:09 URSS 191830Z 35001MPS 9999 BKN300 05/03 Q1023 NOSIG RMK QFE766 06CLRD70

19:04:09 wx upd end $$$

19:09:22 wx upd begin $$$

19:09:22 surround update begin **

19:09:22 <!DOCTYPE HTML PUBLIC "-//W3C//DTD HTML 4.0//EN" "HTTP://WWW.W3.ORG/TR/REC-HTML40/STRICT.DTD"><HTML><HEAD><TITLE>ADDS - METARS FORM RESULTS</TITLE><LINK REL="STYLESHEET" TYPE="TEXT/CSS" HREF="/ADDS/LAYOUT/OPS/MYSTYLE.CSS"></HEAD><BODY BGCOLOR="#FFFFFF"> <TABLE SUMMARY="THIS TABLE IS USED FOR FORMATTING PURPOSES ONLY" BORDER=0 CELLPADDING=3 CELLSPACING=0> <TR VALIGN="TOP"> <TD ALIGN="LEFT" COLSPAN="2"> <H2>AVIATION DIGITAL DATA SERVICE (ADDS)</H2> OUTPUT PRODUCED BY METARS FORM (1909 UTC&NBSP;19 NOVEMBER 2011)<BR> FOUND AT <A HREF="/ADDS/METARS/INDEX.PHP"> HTTP://AVIATIONWEATHER.GOV/ADDS/METARS/INDEX.PHP</A><BR> <BR> </TD> </TR> <TR VALIGN="TOP"> <TD ALIGN="LEFT" COLSPAN="2"><FONT FACE="MONOSPACE,COURIER">UUEE 191830Z 30009MPS 5000 -RA OVC008 02/02 Q0999 NOSIG RMK 30009G11MPS 75550337 25550337</FONT><BR><FONT FACE="MONOSPACE,COURIER">UUWW 191830Z 29005MPS 9999 -RA BKN010 OVC023 02/01 Q1000 19511045 NOSIG</FONT><BR><FONT FACE="MONOSPAC

19:09:22 wx generated for UUEE

19:09:23 KSC set to 37 based on wx

19:09:23 fs9 wx updated for UUEE

19:09:23 wx generated for UUWW

19:09:25 KSC set to 45 based on wx

19:09:25 fs9 wx updated for UUWW

19:09:25 wx generated for

19:09:25 surround update end **

19:09:25 URSS 191830Z 35001MPS 9999 BKN300 05/03 Q1023 NOSIG RMK QFE766 06CLRD70

19:09:25 wx upd end $$$

19:14:37 closest station found URKK (FS=URKK)

19:14:37 surround update begin **

19:14:37 <!DOCTYPE HTML PUBLIC "-//W3C//DTD HTML 4.0//EN" "HTTP://WWW.W3.ORG/TR/REC-HTML40/STRICT.DTD"><HTML><HEAD><TITLE>ADDS - METARS FORM RESULTS</TITLE><LINK REL="STYLESHEET" TYPE="TEXT/CSS" HREF="/ADDS/LAYOUT/OPS/MYSTYLE.CSS"></HEAD><BODY BGCOLOR="#FFFFFF"> <TABLE SUMMARY="THIS TABLE IS USED FOR FORMATTING PURPOSES ONLY" BORDER=0 CELLPADDING=3 CELLSPACING=0> <TR VALIGN="TOP"> <TD ALIGN="LEFT" COLSPAN="2"> <H2>AVIATION DIGITAL DATA SERVICE (ADDS)</H2> OUTPUT PRODUCED BY METARS FORM (1914 UTC&NBSP;19 NOVEMBER 2011)<BR> FOUND AT <A HREF="/ADDS/METARS/INDEX.PHP"> HTTP://AVIATIONWEATHER.GOV/ADDS/METARS/INDEX.PHP</A><BR> <BR> </TD> </TR> <TR VALIGN="TOP"> <TD ALIGN="LEFT" COLSPAN="2"><FONT FACE="MONOSPACE,COURIER">UUEE 191900Z 31008G13MPS 9999 OVC012 02/01 Q1000 NOSIG RMK 30008G10MPS 75550337 25550337</FONT><BR><FONT FACE="MONOSPACE,COURIER">UUWW 191900Z 30006MPS 9999 -RA BKN009 OVC023 02/01 Q1001 19290045 NOSIG</FONT><BR><FONT FACE="MONOSPACE

19:14:37 wx generated for UUEE

19:14:39 KSC set to 37 based on wx

19:14:39 fs9 wx updated for UUEE

19:14:39 wx generated for UUWW

19:14:40 KSC set to 45 based on wx

19:14:40 fs9 wx updated for UUWW

19:14:40 wx generated for

19:14:40 surround update end **

19:14:40 URKK 191900Z 20003MPS 9999 BKN036 05/02 Q1022 NOSIG RMK QFE763 SC065

19:14:41 simulated wind ok

19:14:41 wx generated for URKK

19:14:43 KSC set to 79 based on wx

19:14:43 fs9 wx updated for URKK

19:19:54 wx upd begin $$$

19:19:54 surround update begin **

19:19:55 <!DOCTYPE HTML PUBLIC "-//W3C//DTD HTML 4.0//EN" "HTTP://WWW.W3.ORG/TR/REC-HTML40/STRICT.DTD"><HTML><HEAD><TITLE>ADDS - METARS FORM RESULTS</TITLE><LINK REL="STYLESHEET" TYPE="TEXT/CSS" HREF="/ADDS/LAYOUT/OPS/MYSTYLE.CSS"></HEAD><BODY BGCOLOR="#FFFFFF"> <TABLE SUMMARY="THIS TABLE IS USED FOR FORMATTING PURPOSES ONLY" BORDER=0 CELLPADDING=3 CELLSPACING=0> <TR VALIGN="TOP"> <TD ALIGN="LEFT" COLSPAN="2"> <H2>AVIATION DIGITAL DATA SERVICE (ADDS)</H2> OUTPUT PRODUCED BY METARS FORM (1919 UTC&NBSP;19 NOVEMBER 2011)<BR> FOUND AT <A HREF="/ADDS/METARS/INDEX.PHP"> HTTP://AVIATIONWEATHER.GOV/ADDS/METARS/INDEX.PHP</A><BR> <BR> </TD> </TR> <TR VALIGN="TOP"> <TD ALIGN="LEFT" COLSPAN="2"><FONT FACE="MONOSPACE,COURIER">UUEE 191900Z 31008G13MPS 9999 OVC012 02/01 Q1000 NOSIG RMK 30008G10MPS 75550337 25550337</FONT><BR><FONT FACE="MONOSPACE,COURIER">UUWW 191900Z 30006MPS 9999 -RA BKN009 OVC023 02/01 Q1001 19290045 NOSIG</FONT><BR><FONT FACE="MONOSPACE

19:19:55 wx generated for UUEE

19:19:56 KSC set to 37 based on wx

19:19:56 fs9 wx updated for UUEE

19:19:56 wx generated for UUWW

19:19:57 KSC set to 45 based on wx

19:19:57 fs9 wx updated for UUWW

19:19:57 wx generated for

19:19:57 surround update end **

19:19:58 URKK 191900Z 20003MPS 9999 BKN036 05/02 Q1022 NOSIG RMK QFE763 SC065

19:19:58 wx upd end $$$

19:25:10 wx upd begin $$$

19:25:10 surround update begin **

19:25:10 <!DOCTYPE HTML PUBLIC "-//W3C//DTD HTML 4.0//EN" "HTTP://WWW.W3.ORG/TR/REC-HTML40/STRICT.DTD"><HTML><HEAD><TITLE>ADDS - METARS FORM RESULTS</TITLE><LINK REL="STYLESHEET" TYPE="TEXT/CSS" HREF="/ADDS/LAYOUT/OPS/MYSTYLE.CSS"></HEAD><BODY BGCOLOR="#FFFFFF"> <TABLE SUMMARY="THIS TABLE IS USED FOR FORMATTING PURPOSES ONLY" BORDER=0 CELLPADDING=3 CELLSPACING=0> <TR VALIGN="TOP"> <TD ALIGN="LEFT" COLSPAN="2"> <H2>AVIATION DIGITAL DATA SERVICE (ADDS)</H2> OUTPUT PRODUCED BY METARS FORM (1925 UTC&NBSP;19 NOVEMBER 2011)<BR> FOUND AT <A HREF="/ADDS/METARS/INDEX.PHP"> HTTP://AVIATIONWEATHER.GOV/ADDS/METARS/INDEX.PHP</A><BR> <BR> </TD> </TR> <TR VALIGN="TOP"> <TD ALIGN="LEFT" COLSPAN="2"><FONT FACE="MONOSPACE,COURIER">UUEE 191900Z 31008G13MPS 9999 OVC012 02/01 Q1000 NOSIG RMK 30008G10MPS 75550337 25550337</FONT><BR><FONT FACE="MONOSPACE,COURIER">UUWW 191900Z 30006MPS 9999 -RA BKN009 OVC023 02/01 Q1001 19290045 NOSIG</FONT><BR><FONT FACE="MONOSPACE

19:25:10 wx generated for UUEE

19:25:11 KSC set to 37 based on wx

19:25:11 fs9 wx updated for UUEE

19:25:11 wx generated for UUWW

19:25:12 KSC set to 45 based on wx

19:25:12 fs9 wx updated for UUWW

19:25:12 wx generated for

19:25:13 surround update end **

19:25:13 URKK 191900Z 20003MPS 9999 BKN036 05/02 Q1022 NOSIG RMK QFE763 SC065

19:25:13 wx upd end $$$

19:29:22 closest station found URRR (FS=URRR)

19:29:22 surround update begin **

19:29:23 <!DOCTYPE HTML PUBLIC "-//W3C//DTD HTML 4.0//EN" "HTTP://WWW.W3.ORG/TR/REC-HTML40/STRICT.DTD"><HTML><HEAD><TITLE>ADDS - METARS FORM RESULTS</TITLE><LINK REL="STYLESHEET" TYPE="TEXT/CSS" HREF="/ADDS/LAYOUT/OPS/MYSTYLE.CSS"></HEAD><BODY BGCOLOR="#FFFFFF"> <TABLE SUMMARY="THIS TABLE IS USED FOR FORMATTING PURPOSES ONLY" BORDER=0 CELLPADDING=3 CELLSPACING=0> <TR VALIGN="TOP"> <TD ALIGN="LEFT" COLSPAN="2"> <H2>AVIATION DIGITAL DATA SERVICE (ADDS)</H2> OUTPUT PRODUCED BY METARS FORM (1929 UTC&NBSP;19 NOVEMBER 2011)<BR> FOUND AT <A HREF="/ADDS/METARS/INDEX.PHP"> HTTP://AVIATIONWEATHER.GOV/ADDS/METARS/INDEX.PHP</A><BR> <BR> </TD> </TR> <TR VALIGN="TOP"> <TD ALIGN="LEFT" COLSPAN="2"><FONT FACE="MONOSPACE,COURIER">UUEE 191900Z 31008G13MPS 9999 OVC012 02/01 Q1000 NOSIG RMK 30008G10MPS 75550337 25550337</FONT><BR><FONT FACE="MONOSPACE,COURIER">UUWW 191900Z 30006MPS 9999 -RA BKN009 OVC023 02/01 Q1001 19290045 NOSIG</FONT><BR><FONT FACE="MONOSPACE

19:29:23 wx generated for UUEE

19:29:24 KSC set to 37 based on wx

19:29:24 fs9 wx updated for UUEE

19:29:24 wx generated for UUWW

19:29:25 KSC set to 45 based on wx

19:29:25 fs9 wx updated for UUWW

19:29:25 wx generated for

19:29:25 surround update end **

19:29:25 URRR 191900Z 22004G07MPS 9999 BKN015 BKN100 04/01 Q1019 NOSIG RMK SC060

19:29:26 simulated wind ok

19:29:26 wx generated for URRR

19:29:28 KSC set to 79 based on wx

19:29:28 fs9 wx updated for URRR

19:34:40 wx upd begin $$$

19:34:40 surround update begin **

19:34:40 <!DOCTYPE HTML PUBLIC "-//W3C//DTD HTML 4.0//EN" "HTTP://WWW.W3.ORG/TR/REC-HTML40/STRICT.DTD"><HTML><HEAD><TITLE>ADDS - METARS FORM RESULTS</TITLE><LINK REL="STYLESHEET" TYPE="TEXT/CSS" HREF="/ADDS/LAYOUT/OPS/MYSTYLE.CSS"></HEAD><BODY BGCOLOR="#FFFFFF"> <TABLE SUMMARY="THIS TABLE IS USED FOR FORMATTING PURPOSES ONLY" BORDER=0 CELLPADDING=3 CELLSPACING=0> <TR VALIGN="TOP"> <TD ALIGN="LEFT" COLSPAN="2"> <H2>AVIATION DIGITAL DATA SERVICE (ADDS)</H2> OUTPUT PRODUCED BY METARS FORM (1934 UTC&NBSP;19 NOVEMBER 2011)<BR> FOUND AT <A HREF="/ADDS/METARS/INDEX.PHP"> HTTP://AVIATIONWEATHER.GOV/ADDS/METARS/INDEX.PHP</A><BR> <BR> </TD> </TR> <TR VALIGN="TOP"> <TD ALIGN="LEFT" COLSPAN="2"><FONT FACE="MONOSPACE,COURIER">UUEE 191900Z 31008G13MPS 9999 OVC012 02/01 Q1000 NOSIG RMK 30008G10MPS 75550337 25550337</FONT><BR><FONT FACE="MONOSPACE,COURIER">UUWW 191900Z 30006MPS 9999 -RA BKN009 OVC023 02/01 Q1001 19290045 NOSIG</FONT><BR><FONT FACE="MONOSPACE

19:34:40 wx generated for UUEE

19:34:41 KSC set to 37 based on wx

19:34:41 fs9 wx updated for UUEE

19:34:41 wx generated for UUWW

19:34:43 KSC set to 45 based on wx

19:34:43 fs9 wx updated for UUWW

19:34:43 wx generated for

19:34:43 surround update end **

19:34:43 URRR 191900Z 22004G07MPS 9999 BKN015 BKN100 04/01 Q1019 NOSIG RMK SC060

19:34:43 wx upd end $$$

19:39:55 wx upd begin $$$

19:39:55 surround update begin **

19:39:55 <!DOCTYPE HTML PUBLIC "-//W3C//DTD HTML 4.0//EN" "HTTP://WWW.W3.ORG/TR/REC-HTML40/STRICT.DTD"><HTML><HEAD><TITLE>ADDS - METARS FORM RESULTS</TITLE><LINK REL="STYLESHEET" TYPE="TEXT/CSS" HREF="/ADDS/LAYOUT/OPS/MYSTYLE.CSS"></HEAD><BODY BGCOLOR="#FFFFFF"> <TABLE SUMMARY="THIS TABLE IS USED FOR FORMATTING PURPOSES ONLY" BORDER=0 CELLPADDING=3 CELLSPACING=0> <TR VALIGN="TOP"> <TD ALIGN="LEFT" COLSPAN="2"> <H2>AVIATION DIGITAL DATA SERVICE (ADDS)</H2> OUTPUT PRODUCED BY METARS FORM (1939 UTC&NBSP;19 NOVEMBER 2011)<BR> FOUND AT <A HREF="/ADDS/METARS/INDEX.PHP"> HTTP://AVIATIONWEATHER.GOV/ADDS/METARS/INDEX.PHP</A><BR> <BR> </TD> </TR> <TR VALIGN="TOP"> <TD ALIGN="LEFT" COLSPAN="2"><FONT FACE="MONOSPACE,COURIER">UUEE 191900Z 31008G13MPS 9999 OVC012 02/01 Q1000 NOSIG RMK 30008G10MPS 75550337 25550337</FONT><BR><FONT FACE="MONOSPACE,COURIER">UUWW 191900Z 30006MPS 9999 -RA BKN009 OVC023 02/01 Q1001 19290045 NOSIG</FONT><BR><FONT FACE="MONOSPACE

19:39:55 wx generated for UUEE

19:39:57 KSC set to 37 based on wx

19:39:57 fs9 wx updated for UUEE

19:39:57 wx generated for UUWW

19:39:58 KSC set to 45 based on wx

19:39:58 fs9 wx updated for UUWW

19:39:58 wx generated for

19:39:58 surround update end **

19:39:58 URRR 191930Z 23005G08MPS 9999 BKN014 BKN100 04/01 Q1019 NOSIG RMK SC060

19:39:58 wx generated for URRR

19:39:59 KSC set to 79 based on wx

19:39:59 fs9 wx updated for URRR

19:39:59 wx upd end $$$

19:45:11 wx upd begin $$$

19:45:12 surround update begin **

19:45:12 <!DOCTYPE HTML PUBLIC "-//W3C//DTD HTML 4.0//EN" "HTTP://WWW.W3.ORG/TR/REC-HTML40/STRICT.DTD"><HTML><HEAD><TITLE>ADDS - METARS FORM RESULTS</TITLE><LINK REL="STYLESHEET" TYPE="TEXT/CSS" HREF="/ADDS/LAYOUT/OPS/MYSTYLE.CSS"></HEAD><BODY BGCOLOR="#FFFFFF"> <TABLE SUMMARY="THIS TABLE IS USED FOR FORMATTING PURPOSES ONLY" BORDER=0 CELLPADDING=3 CELLSPACING=0> <TR VALIGN="TOP"> <TD ALIGN="LEFT" COLSPAN="2"> <H2>AVIATION DIGITAL DATA SERVICE (ADDS)</H2> OUTPUT PRODUCED BY METARS FORM (1945 UTC&NBSP;19 NOVEMBER 2011)<BR> FOUND AT <A HREF="/ADDS/METARS/INDEX.PHP"> HTTP://AVIATIONWEATHER.GOV/ADDS/METARS/INDEX.PHP</A><BR> <BR> </TD> </TR> <TR VALIGN="TOP"> <TD ALIGN="LEFT" COLSPAN="2"><FONT FACE="MONOSPACE,COURIER">UUEE 191930Z 30006MPS 9999 -RA OVC011 02/01 Q1001 NOSIG RMK 75550337 25550337</FONT><BR><FONT FACE="MONOSPACE,COURIER">UUWW 191930Z 29005MPS 9999 -RA BKN010 OVC023 02/01 Q1001 19290045 NOSIG</FONT><BR><FONT FACE="MONOSPACE,COURIER">UUO

19:45:12 wx generated for UUEE

19:45:13 KSC set to 37 based on wx

19:45:13 fs9 wx updated for UUEE

19:45:13 wx generated for UUWW

19:45:14 KSC set to 45 based on wx

19:45:14 fs9 wx updated for UUWW

19:45:14 wx generated for UUO

19:45:14 surround update end **

19:45:15 URRR 191930Z 23005G08MPS 9999 BKN014 BKN100 04/01 Q1019 NOSIG RMK SC060

19:45:15 wx upd end $$$

19:46:17 closest station found UKCW (FS=URRR)

19:46:17 surround update begin **

19:46:17 <!DOCTYPE HTML PUBLIC "-//W3C//DTD HTML 4.0//EN" "HTTP://WWW.W3.ORG/TR/REC-HTML40/STRICT.DTD"><HTML><HEAD><TITLE>ADDS - METARS FORM RESULTS</TITLE><LINK REL="STYLESHEET" TYPE="TEXT/CSS" HREF="/ADDS/LAYOUT/OPS/MYSTYLE.CSS"></HEAD><BODY BGCOLOR="#FFFFFF"> <TABLE SUMMARY="THIS TABLE IS USED FOR FORMATTING PURPOSES ONLY" BORDER=0 CELLPADDING=3 CELLSPACING=0> <TR VALIGN="TOP"> <TD ALIGN="LEFT" COLSPAN="2"> <H2>AVIATION DIGITAL DATA SERVICE (ADDS)</H2> OUTPUT PRODUCED BY METARS FORM (1946 UTC&NBSP;19 NOVEMBER 2011)<BR> FOUND AT <A HREF="/ADDS/METARS/INDEX.PHP"> HTTP://AVIATIONWEATHER.GOV/ADDS/METARS/INDEX.PHP</A><BR> <BR> </TD> </TR> <TR VALIGN="TOP"> <TD ALIGN="LEFT" COLSPAN="2"><FONT FACE="MONOSPACE,COURIER">UUEE 191930Z 30006MPS 9999 -RA OVC011 02/01 Q1001 NOSIG RMK 75550337 25550337</FONT><BR><FONT FACE="MONOSPACE,COURIER">UUWW 191930Z 29005MPS 9999 -RA BKN010 OVC023 02/01 Q1001 19290045 NOSIG</FONT><BR><FONT FACE="MONOSPACE,COURIER">UUO

19:46:17 wx generated for UUEE

19:46:19 KSC set to 37 based on wx

19:46:19 fs9 wx updated for UUEE

19:46:19 wx generated for UUWW

19:46:20 KSC set to 45 based on wx

19:46:20 fs9 wx updated for UUWW

19:46:20 wx generated for UUO

19:46:20 surround update end **

19:46:20 UKCW 191930Z 27003MPS 240V310 3300 BR SCT012 BKN020 01/M00 Q1017 0909//70 BECMG 1500 SCT007

19:46:22 simulated wind ok

19:46:22 wx generated for URRR

19:46:23 KSC set to 70 based on wx

19:46:23 fs9 wx updated for URRR

19:51:35 wx upd begin $$$

19:51:35 surround update begin **

19:51:35 <!DOCTYPE HTML PUBLIC "-//W3C//DTD HTML 4.0//EN" "HTTP://WWW.W3.ORG/TR/REC-HTML40/STRICT.DTD"><HTML><HEAD><TITLE>ADDS - METARS FORM RESULTS</TITLE><LINK REL="STYLESHEET" TYPE="TEXT/CSS" HREF="/ADDS/LAYOUT/OPS/MYSTYLE.CSS"></HEAD><BODY BGCOLOR="#FFFFFF"> <TABLE SUMMARY="THIS TABLE IS USED FOR FORMATTING PURPOSES ONLY" BORDER=0 CELLPADDING=3 CELLSPACING=0> <TR VALIGN="TOP"> <TD ALIGN="LEFT" COLSPAN="2"> <H2>AVIATION DIGITAL DATA SERVICE (ADDS)</H2> OUTPUT PRODUCED BY METARS FORM (1951 UTC&NBSP;19 NOVEMBER 2011)<BR> FOUND AT <A HREF="/ADDS/METARS/INDEX.PHP"> HTTP://AVIATIONWEATHER.GOV/ADDS/METARS/INDEX.PHP</A><BR> <BR> </TD> </TR> <TR VALIGN="TOP"> <TD ALIGN="LEFT" COLSPAN="2"><FONT FACE="MONOSPACE,COURIER">UUEE 191930Z 30006MPS 9999 -RA OVC011 02/01 Q1001 NOSIG RMK 75550337 25550337</FONT><BR><FONT FACE="MONOSPACE,COURIER">UUWW 191930Z 29005MPS 9999 -RA BKN010 OVC023 02/01 Q1001 19290045 NOSIG</FONT><BR><FONT FACE="MONOSPACE,COURIER">UUO

19:51:35 wx generated for UUEE

19:51:36 KSC set to 37 based on wx

19:51:36 fs9 wx updated for UUEE

19:51:36 wx generated for UUWW

19:51:38 KSC set to 45 based on wx

19:51:38 fs9 wx updated for UUWW

19:51:38 wx generated for UUO

19:51:38 surround update end **

19:51:38 UKCW 191930Z 27003MPS 240V310 3300 BR SCT012 BKN020 01/M00 Q1017 0909//70 BECMG 1500 SCT007

19:51:38 wx upd end $$$

19:56:50 wx upd begin $$$

19:56:50 surround update begin **

19:56:51 <!DOCTYPE HTML PUBLIC "-//W3C//DTD HTML 4.0//EN" "HTTP://WWW.W3.ORG/TR/REC-HTML40/STRICT.DTD"><HTML><HEAD><TITLE>ADDS - METARS FORM RESULTS</TITLE><LINK REL="STYLESHEET" TYPE="TEXT/CSS" HREF="/ADDS/LAYOUT/OPS/MYSTYLE.CSS"></HEAD><BODY BGCOLOR="#FFFFFF"> <TABLE SUMMARY="THIS TABLE IS USED FOR FORMATTING PURPOSES ONLY" BORDER=0 CELLPADDING=3 CELLSPACING=0> <TR VALIGN="TOP"> <TD ALIGN="LEFT" COLSPAN="2"> <H2>AVIATION DIGITAL DATA SERVICE (ADDS)</H2> OUTPUT PRODUCED BY METARS FORM (1956 UTC&NBSP;19 NOVEMBER 2011)<BR> FOUND AT <A HREF="/ADDS/METARS/INDEX.PHP"> HTTP://AVIATIONWEATHER.GOV/ADDS/METARS/INDEX.PHP</A><BR> <BR> </TD> </TR> <TR VALIGN="TOP"> <TD ALIGN="LEFT" COLSPAN="2"><FONT FACE="MONOSPACE,COURIER">UUEE 191930Z 30006MPS 9999 -RA OVC011 02/01 Q1001 NOSIG RMK 75550337 25550337</FONT><BR><FONT FACE="MONOSPACE,COURIER">UUWW 191930Z 29005MPS 9999 -RA BKN010 OVC023 02/01 Q1001 19290045 NOSIG</FONT><BR><FONT FACE="MONOSPACE,COURIER">UUO

19:56:51 wx generated for UUEE

19:56:52 KSC set to 37 based on wx

19:56:52 fs9 wx updated for UUEE

19:56:52 wx generated for UUWW

19:56:53 KSC set to 45 based on wx

19:56:53 fs9 wx updated for UUWW

19:56:53 wx generated for UUO

19:56:53 surround update end **

19:56:54 UKCW 191930Z 27003MPS 240V310 3300 BR SCT012 BKN020 01/M00 Q1017 0909//70 BECMG 1500 SCT007

19:56:54 wx upd end $$$

20:01:03 closest station found UUOO (FS=UUOO)

20:01:04 surround update begin **

20:01:04 <!DOCTYPE HTML PUBLIC "-//W3C//DTD HTML 4.0//EN" "HTTP://WWW.W3.ORG/TR/REC-HTML40/STRICT.DTD"><HTML><HEAD><TITLE>ADDS - METARS FORM RESULTS</TITLE><LINK REL="STYLESHEET" TYPE="TEXT/CSS" HREF="/ADDS/LAYOUT/OPS/MYSTYLE.CSS"></HEAD><BODY BGCOLOR="#FFFFFF"> <TABLE SUMMARY="THIS TABLE IS USED FOR FORMATTING PURPOSES ONLY" BORDER=0 CELLPADDING=3 CELLSPACING=0> <TR VALIGN="TOP"> <TD ALIGN="LEFT" COLSPAN="2"> <H2>AVIATION DIGITAL DATA SERVICE (ADDS)</H2> OUTPUT PRODUCED BY METARS FORM (2001 UTC&NBSP;19 NOVEMBER 2011)<BR> FOUND AT <A HREF="/ADDS/METARS/INDEX.PHP"> HTTP://AVIATIONWEATHER.GOV/ADDS/METARS/INDEX.PHP</A><BR> <BR> </TD> </TR> <TR VALIGN="TOP"> <TD ALIGN="LEFT" COLSPAN="2"><FONT FACE="MONOSPACE,COURIER">UUEE 191930Z 30006MPS 9999 -RA OVC011 02/01 Q1001 NOSIG RMK 75550337 25550337</FONT><BR><FONT FACE="MONOSPACE,COURIER">UUWW 191930Z 29005MPS 9999 -RA BKN010 OVC023 02/01 Q1001 19290045 NOSIG</FONT><BR><FONT FACE="MONOSPACE,COURIER">UUO

20:01:04 wx generated for UUEE

20:01:05 KSC set to 37 based on wx

20:01:05 fs9 wx updated for UUEE

20:01:05 wx generated for UUWW

20:01:06 KSC set to 45 based on wx

20:01:06 fs9 wx updated for UUWW

20:01:06 wx generated for UUO

20:01:06 surround update end **

20:01:07 UUOO 191930Z 26006G09MPS 2100 -SN BR OVC007 00/M00 Q1009 NOSIG RMK 30591036

20:01:08 simulated wind ok

20:01:08 wx generated for UUOO

20:01:09 KSC set to 36 based on wx

20:01:09 fs9 wx updated for UUOO

20:06:21 wx upd begin $$$

20:06:21 surround update begin **

20:06:21 <!DOCTYPE HTML PUBLIC "-//W3C//DTD HTML 4.0//EN" "HTTP://WWW.W3.ORG/TR/REC-HTML40/STRICT.DTD"><HTML><HEAD><TITLE>ADDS - METARS FORM RESULTS</TITLE><LINK REL="STYLESHEET" TYPE="TEXT/CSS" HREF="/ADDS/LAYOUT/OPS/MYSTYLE.CSS"></HEAD><BODY BGCOLOR="#FFFFFF"> <TABLE SUMMARY="THIS TABLE IS USED FOR FORMATTING PURPOSES ONLY" BORDER=0 CELLPADDING=3 CELLSPACING=0> <TR VALIGN="TOP"> <TD ALIGN="LEFT" COLSPAN="2"> <H2>AVIATION DIGITAL DATA SERVICE (ADDS)</H2> OUTPUT PRODUCED BY METARS FORM (2006 UTC&NBSP;19 NOVEMBER 2011)<BR> FOUND AT <A HREF="/ADDS/METARS/INDEX.PHP"> HTTP://AVIATIONWEATHER.GOV/ADDS/METARS/INDEX.PHP</A><BR> <BR> </TD> </TR> <TR VALIGN="TOP"> <TD ALIGN="LEFT" COLSPAN="2"><FONT FACE="MONOSPACE,COURIER">UUEE 191930Z 30006MPS 9999 -RA OVC011 02/01 Q1001 NOSIG RMK 75550337 25550337</FONT><BR><FONT FACE="MONOSPACE,COURIER">UUWW 191930Z 29005MPS 9999 -RA BKN010 OVC023 02/01 Q1001 19290045 NOSIG</FONT><BR><FONT FACE="MONOSPACE,COURIER">UUO

20:06:21 wx generated for UUEE

20:06:22 KSC set to 37 based on wx

20:06:22 fs9 wx updated for UUEE

20:06:22 wx generated for UUWW

20:06:24 KSC set to 45 based on wx

20:06:24 fs9 wx updated for UUWW

20:06:24 wx generated for UUO

20:06:24 surround update end **

20:06:24 UUOO 191930Z 26006G09MPS 2100 -SN BR OVC007 00/M00 Q1009 NOSIG RMK 30591036

20:06:24 wx upd end $$$

20:11:36 wx upd begin $$$

20:11:36 surround update begin **

20:11:36 <!DOCTYPE HTML PUBLIC "-//W3C//DTD HTML 4.0//EN" "HTTP://WWW.W3.ORG/TR/REC-HTML40/STRICT.DTD"><HTML><HEAD><TITLE>ADDS - METARS FORM RESULTS</TITLE><LINK REL="STYLESHEET" TYPE="TEXT/CSS" HREF="/ADDS/LAYOUT/OPS/MYSTYLE.CSS"></HEAD><BODY BGCOLOR="#FFFFFF"> <TABLE SUMMARY="THIS TABLE IS USED FOR FORMATTING PURPOSES ONLY" BORDER=0 CELLPADDING=3 CELLSPACING=0> <TR VALIGN="TOP"> <TD ALIGN="LEFT" COLSPAN="2"> <H2>AVIATION DIGITAL DATA SERVICE (ADDS)</H2> OUTPUT PRODUCED BY METARS FORM (2011 UTC&NBSP;19 NOVEMBER 2011)<BR> FOUND AT <A HREF="/ADDS/METARS/INDEX.PHP"> HTTP://AVIATIONWEATHER.GOV/ADDS/METARS/INDEX.PHP</A><BR> <BR> </TD> </TR> <TR VALIGN="TOP"> <TD ALIGN="LEFT" COLSPAN="2"><FONT FACE="MONOSPACE,COURIER">UUEE 192000Z 29006MPS 5000 -RA BKN009 OVC016 02/01 Q1001 NOSIG RMK 75550337 25550337</FONT><BR><FONT FACE="MONOSPACE,COURIER">UUWW 192000Z 29005MPS 9999 -RA SCT010 OVC026 02/01 Q1002 19290045 NOSIG</FONT><BR><FONT FACE="MONOSPACE,COU

20:11:36 wx generated for UUEE

20:11:38 KSC set to 37 based on wx

20:11:38 fs9 wx updated for UUEE

20:11:38 wx generated for UUWW

20:11:39 KSC set to 45 based on wx

20:11:39 fs9 wx updated for UUWW

20:11:39 wx generated for

20:11:39 surround update end **

20:11:39 UUOO 192000Z 26007G10MPS 4200 -SN BR OVC011 00/M00 Q1009 NOSIG RMK 30591036

20:11:39 wx generated for UUOO

20:11:40 KSC set to 36 based on wx

20:11:40 fs9 wx updated for UUOO

20:11:40 wx upd end $$$

20:16:52 wx upd begin $$$

20:16:52 surround update begin **

20:16:53 <!DOCTYPE HTML PUBLIC "-//W3C//DTD HTML 4.0//EN" "HTTP://WWW.W3.ORG/TR/REC-HTML40/STRICT.DTD"><HTML><HEAD><TITLE>ADDS - METARS FORM RESULTS</TITLE><LINK REL="STYLESHEET" TYPE="TEXT/CSS" HREF="/ADDS/LAYOUT/OPS/MYSTYLE.CSS"></HEAD><BODY BGCOLOR="#FFFFFF"> <TABLE SUMMARY="THIS TABLE IS USED FOR FORMATTING PURPOSES ONLY" BORDER=0 CELLPADDING=3 CELLSPACING=0> <TR VALIGN="TOP"> <TD ALIGN="LEFT" COLSPAN="2"> <H2>AVIATION DIGITAL DATA SERVICE (ADDS)</H2> OUTPUT PRODUCED BY METARS FORM (2016 UTC&NBSP;19 NOVEMBER 2011)<BR> FOUND AT <A HREF="/ADDS/METARS/INDEX.PHP"> HTTP://AVIATIONWEATHER.GOV/ADDS/METARS/INDEX.PHP</A><BR> <BR> </TD> </TR> <TR VALIGN="TOP"> <TD ALIGN="LEFT" COLSPAN="2"><FONT FACE="MONOSPACE,COURIER">UUEE 192000Z 29006MPS 5000 -RA BKN009 OVC016 02/01 Q1001 NOSIG RMK 75550337 25550337</FONT><BR><FONT FACE="MONOSPACE,COURIER">UUWW 192000Z 29005MPS 9999 -RA SCT010 OVC026 02/01 Q1002 19290045 NOSIG</FONT><BR><FONT FACE="MONOSPACE,COU

20:16:53 wx generated for UUEE

20:16:54 KSC set to 37 based on wx

20:16:54 fs9 wx updated for UUEE

20:16:54 wx generated for UUWW

20:16:55 KSC set to 45 based on wx

20:16:55 fs9 wx updated for UUWW

20:16:55 wx generated for

20:16:55 surround update end **

20:16:56 UUOO 192000Z 26007G10MPS 4200 -SN BR OVC011 00/M00 Q1009 NOSIG RMK 30591036

20:16:56 wx upd end $$$

20:22:08 wx upd begin $$$

20:22:08 surround update begin **

20:22:08 <!DOCTYPE HTML PUBLIC "-//W3C//DTD HTML 4.0//EN" "HTTP://WWW.W3.ORG/TR/REC-HTML40/STRICT.DTD"><HTML><HEAD><TITLE>ADDS - METARS FORM RESULTS</TITLE><LINK REL="STYLESHEET" TYPE="TEXT/CSS" HREF="/ADDS/LAYOUT/OPS/MYSTYLE.CSS"></HEAD><BODY BGCOLOR="#FFFFFF"> <TABLE SUMMARY="THIS TABLE IS USED FOR FORMATTING PURPOSES ONLY" BORDER=0 CELLPADDING=3 CELLSPACING=0> <TR VALIGN="TOP"> <TD ALIGN="LEFT" COLSPAN="2"> <H2>AVIATION DIGITAL DATA SERVICE (ADDS)</H2> OUTPUT PRODUCED BY METARS FORM (2022 UTC&NBSP;19 NOVEMBER 2011)<BR> FOUND AT <A HREF="/ADDS/METARS/INDEX.PHP"> HTTP://AVIATIONWEATHER.GOV/ADDS/METARS/INDEX.PHP</A><BR> <BR> </TD> </TR> <TR VALIGN="TOP"> <TD ALIGN="LEFT" COLSPAN="2"><FONT FACE="MONOSPACE,COURIER">UUEE 192000Z 29006MPS 5000 -RA BKN009 OVC016 02/01 Q1001 NOSIG RMK 75550337 25550337</FONT><BR><FONT FACE="MONOSPACE,COURIER">UUWW 192000Z 29005MPS 9999 -RA SCT010 OVC026 02/01 Q1002 19290045 NOSIG</FONT><BR><FONT FACE="MONOSPACE,COU

20:22:08 wx generated for UUEE

20:22:09 KSC set to 37 based on wx

20:22:09 fs9 wx updated for UUEE

20:22:09 wx generated for UUWW

20:22:10 KSC set to 45 based on wx

20:22:10 fs9 wx updated for UUWW

20:22:10 wx generated for

20:22:11 surround update end **

20:22:11 UUOO 192000Z 26007G10MPS 4200 -SN BR OVC011 00/M00 Q1009 NOSIG RMK 30591036

20:22:11 wx upd end $$$

20:27:23 wx upd begin $$$

20:27:23 surround update begin **

20:27:23 <!DOCTYPE HTML PUBLIC "-//W3C//DTD HTML 4.0//EN" "HTTP://WWW.W3.ORG/TR/REC-HTML40/STRICT.DTD"><HTML><HEAD><TITLE>ADDS - METARS FORM RESULTS</TITLE><LINK REL="STYLESHEET" TYPE="TEXT/CSS" HREF="/ADDS/LAYOUT/OPS/MYSTYLE.CSS"></HEAD><BODY BGCOLOR="#FFFFFF"> <TABLE SUMMARY="THIS TABLE IS USED FOR FORMATTING PURPOSES ONLY" BORDER=0 CELLPADDING=3 CELLSPACING=0> <TR VALIGN="TOP"> <TD ALIGN="LEFT" COLSPAN="2"> <H2>AVIATION DIGITAL DATA SERVICE (ADDS)</H2> OUTPUT PRODUCED BY METARS FORM (2027 UTC&NBSP;19 NOVEMBER 2011)<BR> FOUND AT <A HREF="/ADDS/METARS/INDEX.PHP"> HTTP://AVIATIONWEATHER.GOV/ADDS/METARS/INDEX.PHP</A><BR> <BR> </TD> </TR> <TR VALIGN="TOP"> <TD ALIGN="LEFT" COLSPAN="2"><FONT FACE="MONOSPACE,COURIER">UUEE 192000Z 29006MPS 5000 -RA BKN009 OVC016 02/01 Q1001 NOSIG RMK 75550337 25550337</FONT><BR><FONT FACE="MONOSPACE,COURIER">UUWW 192000Z 29005MPS 9999 -RA SCT010 OVC026 02/01 Q1002 19290045 NOSIG</FONT><BR><FONT FACE="MONOSPACE,COU

20:27:23 wx generated for UUEE

20:27:24 KSC set to 37 based on wx

20:27:24 fs9 wx updated for UUEE

20:27:24 wx generated for UUWW

20:27:26 KSC set to 45 based on wx

20:27:26 fs9 wx updated for UUWW

20:27:26 wx generated for

20:27:26 surround update end **

20:27:26 UUOO 192000Z 26007G10MPS 4200 -SN BR OVC011 00/M00 Q1009 NOSIG RMK 30591036

20:27:26 wx upd end $$$

20:30:33 closest station found UUDD (FS=UUDD)

20:30:33 surround update begin **

20:30:33 <!DOCTYPE HTML PUBLIC "-//W3C//DTD HTML 4.0//EN" "HTTP://WWW.W3.ORG/TR/REC-HTML40/STRICT.DTD"><HTML><HEAD><TITLE>ADDS - METARS FORM RESULTS</TITLE><LINK REL="STYLESHEET" TYPE="TEXT/CSS" HREF="/ADDS/LAYOUT/OPS/MYSTYLE.CSS"></HEAD><BODY BGCOLOR="#FFFFFF"> <TABLE SUMMARY="THIS TABLE IS USED FOR FORMATTING PURPOSES ONLY" BORDER=0 CELLPADDING=3 CELLSPACING=0> <TR VALIGN="TOP"> <TD ALIGN="LEFT" COLSPAN="2"> <H2>AVIATION DIGITAL DATA SERVICE (ADDS)</H2> OUTPUT PRODUCED BY METARS FORM (2030 UTC&NBSP;19 NOVEMBER 2011)<BR> FOUND AT <A HREF="/ADDS/METARS/INDEX.PHP"> HTTP://AVIATIONWEATHER.GOV/ADDS/METARS/INDEX.PHP</A><BR> <BR> </TD> </TR> <TR VALIGN="TOP"> <TD ALIGN="LEFT" COLSPAN="2"><FONT FACE="MONOSPACE,COURIER">UUEE 192000Z 29006MPS 5000 -RA BKN009 OVC016 02/01 Q1001 NOSIG RMK 75550337 25550337</FONT><BR><FONT FACE="MONOSPACE,COURIER">UUWW 192000Z 29005MPS 9999 -RA SCT010 OVC026 02/01 Q1002 19290045 NOSIG</FONT><BR><FONT FACE="MONOSPACE,COU

20:30:33 wx generated for UUEE

20:30:34 KSC set to 37 based on wx

20:30:34 fs9 wx updated for UUEE

20:30:34 wx generated for UUWW

20:30:36 KSC set to 45 based on wx

20:30:36 fs9 wx updated for UUWW

20:30:36 wx generated for

20:30:36 surround update end **

20:30:36 UUDD 192000Z 30008MPS 9999 BKN013 OVC100 03/01 Q1001 32590194 82520195 NOSIG

20:30:37 simulated wind ok

20:30:37 wx generated for UUDD

20:30:38 KSC set to 94 based on wx

20:30:38 fs9 wx updated for UUDD

20:35:50 wx upd begin $$$

20:35:50 surround update begin **

20:35:51 <!DOCTYPE HTML PUBLIC "-//W3C//DTD HTML 4.0//EN" "HTTP://WWW.W3.ORG/TR/REC-HTML40/STRICT.DTD"><HTML><HEAD><TITLE>ADDS - METARS FORM RESULTS</TITLE><LINK REL="STYLESHEET" TYPE="TEXT/CSS" HREF="/ADDS/LAYOUT/OPS/MYSTYLE.CSS"></HEAD><BODY BGCOLOR="#FFFFFF"> <TABLE SUMMARY="THIS TABLE IS USED FOR FORMATTING PURPOSES ONLY" BORDER=0 CELLPADDING=3 CELLSPACING=0> <TR VALIGN="TOP"> <TD ALIGN="LEFT" COLSPAN="2"> <H2>AVIATION DIGITAL DATA SERVICE (ADDS)</H2> OUTPUT PRODUCED BY METARS FORM (2035 UTC&NBSP;19 NOVEMBER 2011)<BR> FOUND AT <A HREF="/ADDS/METARS/INDEX.PHP"> HTTP://AVIATIONWEATHER.GOV/ADDS/METARS/INDEX.PHP</A><BR> <BR> </TD> </TR> <TR VALIGN="TOP"> <TD ALIGN="LEFT" COLSPAN="2"><FONT FACE="MONOSPACE,COURIER">UUEE 192000Z 29006MPS 5000 -RA BKN009 OVC016 02/01 Q1001 NOSIG RMK 75550337 25550337</FONT><BR><FONT FACE="MONOSPACE,COURIER">UUWW 192000Z 29005MPS 9999 -RA SCT010 OVC026 02/01 Q1002 19290045 NOSIG</FONT><BR><FONT FACE="MONOSPACE,COU

20:35:51 wx generated for UUEE

20:35:52 KSC set to 37 based on wx

20:35:52 fs9 wx updated for UUEE

20:35:52 wx generated for UUWW

20:35:53 KSC set to 45 based on wx

20:35:53 fs9 wx updated for UUWW

20:35:53 wx generated for

20:35:53 surround update end **

20:35:53 UUDD 192000Z 30008MPS 9999 BKN013 OVC100 03/01 Q1001 32590194 82520195 NOSIG

20:35:53 wx upd end $$$

20:41:05 wx upd begin $$$

20:41:05 surround update begin **

20:41:05 <!DOCTYPE HTML PUBLIC "-//W3C//DTD HTML 4.0//EN" "HTTP://WWW.W3.ORG/TR/REC-HTML40/STRICT.DTD"><HTML><HEAD><TITLE>ADDS - METARS FORM RESULTS</TITLE><LINK REL="STYLESHEET" TYPE="TEXT/CSS" HREF="/ADDS/LAYOUT/OPS/MYSTYLE.CSS"></HEAD><BODY BGCOLOR="#FFFFFF"> <TABLE SUMMARY="THIS TABLE IS USED FOR FORMATTING PURPOSES ONLY" BORDER=0 CELLPADDING=3 CELLSPACING=0> <TR VALIGN="TOP"> <TD ALIGN="LEFT" COLSPAN="2"> <H2>AVIATION DIGITAL DATA SERVICE (ADDS)</H2> OUTPUT PRODUCED BY METARS FORM (2041 UTC&NBSP;19 NOVEMBER 2011)<BR> FOUND AT <A HREF="/ADDS/METARS/INDEX.PHP"> HTTP://AVIATIONWEATHER.GOV/ADDS/METARS/INDEX.PHP</A><BR> <BR> </TD> </TR> <TR VALIGN="TOP"> <TD ALIGN="LEFT" COLSPAN="2"><FONT FACE="MONOSPACE,COURIER">UUEE 192030Z 29007MPS 5000 -RA BKN009 OVC014 02/02 Q1001 NOSIG RMK 75550337 25550337</FONT><BR><FONT FACE="MONOSPACE,COURIER">UUWW 192030Z 28006MPS 9999 -RA BKN008 OVC026 02/01 Q1002 19290045 NOSIG</FONT><BR><FONT FACE="MONOSPACE,COU

20:41:05 wx generated for UUEE

20:41:07 KSC set to 37 based on wx

20:41:07 fs9 wx updated for UUEE

20:41:07 wx generated for UUWW

20:41:08 KSC set to 45 based on wx

20:41:08 fs9 wx updated for UUWW

20:41:08 wx generated for

20:41:08 surround update end **

20:41:08 UUDD 192000Z 30008MPS 9999 BKN013 OVC100 03/01 Q1001 32590194 82520195 NOSIG

20:41:08 wx upd end $$$

20:46:20 wx upd begin $$$

20:46:20 surround update begin **

20:46:20 <!DOCTYPE HTML PUBLIC "-//W3C//DTD HTML 4.0//EN" "HTTP://WWW.W3.ORG/TR/REC-HTML40/STRICT.DTD"><HTML><HEAD><TITLE>ADDS - METARS FORM RESULTS</TITLE><LINK REL="STYLESHEET" TYPE="TEXT/CSS" HREF="/ADDS/LAYOUT/OPS/MYSTYLE.CSS"></HEAD><BODY BGCOLOR="#FFFFFF"> <TABLE SUMMARY="THIS TABLE IS USED FOR FORMATTING PURPOSES ONLY" BORDER=0 CELLPADDING=3 CELLSPACING=0> <TR VALIGN="TOP"> <TD ALIGN="LEFT" COLSPAN="2"> <H2>AVIATION DIGITAL DATA SERVICE (ADDS)</H2> OUTPUT PRODUCED BY METARS FORM (2046 UTC&NBSP;19 NOVEMBER 2011)<BR> FOUND AT <A HREF="/ADDS/METARS/INDEX.PHP"> HTTP://AVIATIONWEATHER.GOV/ADDS/METARS/INDEX.PHP</A><BR> <BR> </TD> </TR> <TR VALIGN="TOP"> <TD ALIGN="LEFT" COLSPAN="2"><FONT FACE="MONOSPACE,COURIER">UUEE 192030Z 29007MPS 5000 -RA BKN009 OVC014 02/02 Q1001 NOSIG RMK 75550337 25550337</FONT><BR><FONT FACE="MONOSPACE,COURIER">UUWW 192030Z 28006MPS 9999 -RA BKN008 OVC026 02/01 Q1002 19290045 NOSIG</FONT><BR><FONT FACE="MONOSPACE,COU

20:46:20 wx generated for UUEE

20:46:22 KSC set to 37 based on wx

20:46:22 fs9 wx updated for UUEE

20:46:22 wx generated for UUWW

20:46:23 KSC set to 45 based on wx

20:46:23 fs9 wx updated for UUWW

20:46:23 wx generated for

20:46:23 surround update end **

20:46:23 UUDD 192030Z 29008MPS 9999 BKN014 OVC100 03/01 Q1002 WS RWY32L 32590194 82520195 NOSIG

20:46:23 wx generated for UUDD

20:46:24 KSC set to 94 based on wx

20:46:24 fs9 wx updated for UUDD

20:46:24 wx upd end $$$

20:48:19 wx refresh begin $$$

20:48:19 closest station found UUDD (FS=UUDD)

20:48:19 surround update begin **

20:48:20 <!DOCTYPE HTML PUBLIC "-//W3C//DTD HTML 4.0//EN" "HTTP://WWW.W3.ORG/TR/REC-HTML40/STRICT.DTD"><HTML><HEAD><TITLE>ADDS - METARS FORM RESULTS</TITLE><LINK REL="STYLESHEET" TYPE="TEXT/CSS" HREF="/ADDS/LAYOUT/OPS/MYSTYLE.CSS"></HEAD><BODY BGCOLOR="#FFFFFF"> <TABLE SUMMARY="THIS TABLE IS USED FOR FORMATTING PURPOSES ONLY" BORDER=0 CELLPADDING=3 CELLSPACING=0> <TR VALIGN="TOP"> <TD ALIGN="LEFT" COLSPAN="2"> <H2>AVIATION DIGITAL DATA SERVICE (ADDS)</H2> OUTPUT PRODUCED BY METARS FORM (2048 UTC&NBSP;19 NOVEMBER 2011)<BR> FOUND AT <A HREF="/ADDS/METARS/INDEX.PHP"> HTTP://AVIATIONWEATHER.GOV/ADDS/METARS/INDEX.PHP</A><BR> <BR> </TD> </TR> <TR VALIGN="TOP"> <TD ALIGN="LEFT" COLSPAN="2"><FONT FACE="MONOSPACE,COURIER">UUEE 192030Z 29007MPS 5000 -RA BKN009 OVC014 02/02 Q1001 NOSIG RMK 75550337 25550337</FONT><BR><FONT FACE="MONOSPACE,COURIER">UUWW 192030Z 28006MPS 9999 -RA BKN008 OVC026 02/01 Q1002 19290045 NOSIG</FONT><BR><FONT FACE="MONOSPACE,COU

20:48:20 wx generated for UUEE

20:48:21 KSC set to 37 based on wx

20:48:21 fs9 wx updated for UUEE

20:48:21 wx generated for UUWW

20:48:22 KSC set to 45 based on wx

20:48:22 fs9 wx updated for UUWW

20:48:22 wx generated for

20:48:22 surround update end **

20:48:22 UUDD 192030Z 29008MPS 9999 BKN014 OVC100 03/01 Q1002 WS RWY32L 32590194 82520195 NOSIG

20:48:23 simulated wind ok

20:48:23 wx generated for UUDD

20:48:25 KSC set to 94 based on wx

20:48:25 fs9 wx updated for UUDD

20:48:25 wx refresh end $$$

20:53:34 wx upd begin $$$

20:53:35 surround update begin **

20:53:35 <!DOCTYPE HTML PUBLIC "-//W3C//DTD HTML 4.0//EN" "HTTP://WWW.W3.ORG/TR/REC-HTML40/STRICT.DTD"><HTML><HEAD><TITLE>ADDS - METARS FORM RESULTS</TITLE><LINK REL="STYLESHEET" TYPE="TEXT/CSS" HREF="/ADDS/LAYOUT/OPS/MYSTYLE.CSS"></HEAD><BODY BGCOLOR="#FFFFFF"> <TABLE SUMMARY="THIS TABLE IS USED FOR FORMATTING PURPOSES ONLY" BORDER=0 CELLPADDING=3 CELLSPACING=0> <TR VALIGN="TOP"> <TD ALIGN="LEFT" COLSPAN="2"> <H2>AVIATION DIGITAL DATA SERVICE (ADDS)</H2> OUTPUT PRODUCED BY METARS FORM (2053 UTC&NBSP;19 NOVEMBER 2011)<BR> FOUND AT <A HREF="/ADDS/METARS/INDEX.PHP"> HTTP://AVIATIONWEATHER.GOV/ADDS/METARS/INDEX.PHP</A><BR> <BR> </TD> </TR> <TR VALIGN="TOP"> <TD ALIGN="LEFT" COLSPAN="2"><FONT FACE="MONOSPACE,COURIER">UUEE 192030Z 29007MPS 5000 -RA BKN009 OVC014 02/02 Q1001 NOSIG RMK 75550337 25550337</FONT><BR><FONT FACE="MONOSPACE,COURIER">UUWW 192030Z 28006MPS 9999 -RA BKN008 OVC026 02/01 Q1002 19290045 NOSIG</FONT><BR><FONT FACE="MONOSPACE,COU

20:53:35 wx generated for UUEE

20:53:36 KSC set to 37 based on wx

20:53:36 fs9 wx updated for UUEE

20:53:36 wx generated for UUWW

20:53:37 KSC set to 45 based on wx

20:53:37 fs9 wx updated for UUWW

20:53:37 wx generated for

20:53:38 surround update end **

20:53:38 UUDD 192030Z 29008MPS 9999 BKN014 OVC100 03/01 Q1002 WS RWY32L 32590194 82520195 NOSIG

20:53:38 wx upd end $$$

20:58:21 FSUIPC connection lost...

 

 

 

 

 

Edited by -=Maestro=-

Share this post


Link to post
Share on other sites

Доброго времени суток товарищи форумчане. Хотел бы задать вам вопрос по программке FSATIS, а собственно кто-нибудь видел данный эффект:

-DYNAMIC LIGTING - Динамическое изменение освещения.

-STROBE LIGTING - Эффект от стробовых огней в облачности.

???

Сам пробовал ставить галки, но изменений не заметил. Пробовал и день и ночь, сплошную и рваную облачность.

Изменений так и не увидел, может кто подскажет что же всё-таки делают эти галки в программе?

 

И ещё, как работает галка:

-WIND ALOFT PROCESSING - Ветер на высоте.

Просто сдувает самолет или ещё может имитировать турбулентность?

Edited by Captain_Denis

Share this post


Link to post
Share on other sites

Create an account or sign in to comment

You need to be a member in order to leave a comment

Create an account

Sign up for a new account in our community. It's easy!

Register a new account

Sign in

Already have an account? Sign in here.

Sign In Now

  • Recently Browsing   0 members

    No registered users viewing this page.

×